Time,TemperatureF,DewpointF,PressureIn,WindDirection,WindDirectionDegrees,WindSpeedMPH,WindSpeedGustMPH,Humidity,HourlyPrecipIn,Conditions,Clouds,dailyrainin,SoftwareType,DateUTC
2013-10-16 00:00:00,48.7,47.7,24.89,SSE,154,2.7,2.7,96,0.00,,---,0.51,VWS V14.01,2013-10-16 05:00:00,
2013-10-16 00:03:00,48.7,47.7,24.89,SSE,157,3.1,3.1,96,0.00,,---,0.00,VWS V14.01,2013-10-16 05:03:00,
2013-10-16 00:04:00,48.7,47.9,24.89,SSE,157,3.1,3.1,97,0.00,,---,0.00,VWS V14.01,2013-10-16 05:04:00,
2013-10-16 00:05:00,48.7,47.9,24.89,SSE,157,3.1,3.1,97,0.00,,---,0.00,VWS V14.01,2013-10-16 05:05:00,
2013-10-16 00:06:00,48.7,47.9,24.89,SSE,157,3.1,3.1,97,0.00,,---,0.00,VWS V14.01,2013-10-16 05:06:00,
2013-10-16 00:08:00,48.7,47.9,24.89,SSE,157,3.1,3.1,97,0.00,,---,0.00,VWS V14.01,2013-10-16 05:08:00,
2013-10-16 00:09:00,48.7,47.9,24.89,SSE,157,3.1,3.1,97,0.00,,---,0.00,VWS V14.01,2013-10-16 05:09:00,
2013-10-16 00:11:00,48.7,47.9,24.89,SSE,152,5.4,5.4,97,0.00,,---,0.00,VWS V14.01,2013-10-16 05:11:00,
2013-10-16 00:13:00,48.7,47.9,24.89,SSE,152,5.4,5.4,97,0.00,,---,0.00,VWS V14.01,2013-10-16 05:13:00,
2013-10-16 00:15:00,48.7,47.9,24.89,SSE,152,5.4,5.4,97,0.00,,---,0.00,VWS V14.01,2013-10-16 05:15:00,
2013-10-16 00:16:00,48.7,47.9,24.89,SSE,152,5.4,5.4,97,0.00,,---,0.00,VWS V14.01,2013-10-16 05:16:00,
2013-10-16 00:17:00,48.7,47.9,24.89,SSE,152,5.4,5.4,97,0.00,,---,0.00,VWS V14.01,2013-10-16 05:17:00,
2013-10-16 00:18:00,48.7,47.9,24.89,SSE,152,5.4,5.4,97,0.00,,---,0.00,VWS V14.01,2013-10-16 05:18:00,
2013-10-16 00:19:00,48.7,47.9,24.89,SSE,152,5.4,5.4,97,0.00,,---,0.00,VWS V14.01,2013-10-16 05:19:00,
2013-10-16 00:20:00,48.7,47.9,24.89,SSE,165,2.7,5.4,97,0.00,,---,0.00,VWS V14.01,2013-10-16 05:20:00,
2013-10-16 00:21:00,48.7,47.9,24.89,SSE,158,2.7,2.7,97,0.00,,---,0.00,VWS V14.01,2013-10-16 05:21:00,
2013-10-16 00:22:00,48.7,47.9,24.89,South,177,4.0,4.0,97,0.00,,---,0.00,VWS V14.01,2013-10-16 05:22:00,
2013-10-16 00:23:00,48.7,47.9,24.89,South,177,4.0,4.0,97,0.00,,---,0.00,VWS V14.01,2013-10-16 05:23:00,
2013-10-16 00:24:00,48.7,47.9,24.89,South,177,4.0,4.0,97,0.00,,---,0.00,VWS V14.01,2013-10-16 05:24:00,
2013-10-16 00:25:00,48.7,47.9,24.89,South,177,4.0,4.0,97,0.00,,---,0.00,VWS V14.01,2013-10-16 05:25:00,
2013-10-16 00:26:00,48.6,47.8,24.89,South,177,4.0,4.0,97,0.00,,---,0.00,VWS V14.01,2013-10-16 05:26:00,
2013-10-16 00:28:00,48.6,47.8,24.89,South,177,4.0,4.0,97,0.00,,---,0.00,VWS V14.01,2013-10-16 05:28:00,
2013-10-16 00:29:00,48.6,47.8,24.89,SSE,147,4.0,4.0,97,0.00,,---,0.00,VWS V14.01,2013-10-16 05:29:00,
2013-10-16 00:30:00,48.6,47.8,24.89,SSE,163,3.1,4.0,97,0.00,,---,0.00,VWS V14.01,2013-10-16 05:30:00,
2013-10-16 00:31:00,48.6,47.8,24.89,SSE,163,3.1,3.1,97,0.00,,---,0.00,VWS V14.01,2013-10-16 05:31:00,
2013-10-16 00:33:00,48.6,47.8,24.89,SSE,164,0.0,0.0,97,0.00,,---,0.00,VWS V14.01,2013-10-16 05:33:00,
2013-10-16 00:34:00,48.6,47.8,24.89,SSE,164,0.0,0.0,97,0.00,,---,0.00,VWS V14.01,2013-10-16 05:34:00,
2013-10-16 00:35:00,48.6,47.8,24.89,SSE,164,0.0,0.0,97,0.00,,---,0.00,VWS V14.01,2013-10-16 05:35:00,
2013-10-16 00:36:00,48.6,47.8,24.89,SSE,164,0.0,0.0,97,0.00,,---,0.00,VWS V14.01,2013-10-16 05:36:00,
2013-10-16 00:38:00,48.6,47.8,24.89,South,170,2.7,2.7,97,0.00,,---,0.00,VWS V14.01,2013-10-16 05:38:00,
2013-10-16 00:39:00,48.6,47.8,24.89,SSE,159,2.7,2.7,97,0.00,,---,0.00,VWS V14.01,2013-10-16 05:39:00,
2013-10-16 00:40:00,48.6,47.8,24.89,SSE,159,2.7,2.7,97,0.00,,---,0.00,VWS V14.01,2013-10-16 05:40:00,
2013-10-16 00:41:00,48.6,47.8,24.89,SSE,159,2.7,2.7,97,0.00,,---,0.00,VWS V14.01,2013-10-16 05:41:00,
2013-10-16 00:43:00,48.6,47.8,24.89,SSE,166,3.6,3.6,97,0.00,,---,0.00,VWS V14.01,2013-10-16 05:43:00,
2013-10-16 00:46:00,48.6,47.8,24.89,South,169,3.1,3.6,97,0.00,,---,0.00,VWS V14.01,2013-10-16 05:46:00,
2013-10-16 00:47:00,48.6,47.8,24.89,South,169,3.1,3.1,97,0.00,,---,0.00,VWS V14.01,2013-10-16 05:47:00,
2013-10-16 00:48:00,48.6,47.8,24.89,South,169,3.1,3.1,97,0.00,,---,0.00,VWS V14.01,2013-10-16 05:48:00,
2013-10-16 00:50:00,48.6,47.8,24.89,South,170,3.1,3.1,97,0.00,,---,0.00,VWS V14.01,2013-10-16 05:50:00,
2013-10-16 00:52:00,48.6,47.8,24.89,South,170,3.1,3.1,97,0.00,,---,0.00,VWS V14.01,2013-10-16 05:52:00,
2013-10-16 00:53:00,48.6,47.8,24.89,South,170,3.1,3.1,97,0.00,,---,0.00,VWS V14.01,2013-10-16 05:53:00,
2013-10-16 00:55:00,48.6,47.8,24.89,South,172,2.7,2.7,97,0.00,,---,0.00,VWS V14.01,2013-10-16 05:55:00,
2013-10-16 00:56:00,48.6,47.8,24.89,South,172,2.7,2.7,97,0.00,,---,0.00,VWS V14.01,2013-10-16 05:56:00,
2013-10-16 00:57:00,48.6,47.8,24.89,South,172,2.7,2.7,97,0.00,,---,0.00,VWS V14.01,2013-10-16 05:57:00,
2013-10-16 00:59:00,48.6,47.8,24.89,South,172,2.7,2.7,97,0.00,,---,0.00,VWS V14.01,2013-10-16 05:59:00,
2013-10-16 01:00:00,48.6,47.8,24.89,South,172,2.7,2.7,97,0.00,,---,0.00,VWS V14.01,2013-10-16 06:00:00,
2013-10-16 01:01:00,48.6,47.8,24.89,South,172,2.7,2.7,97,0.00,,---,0.00,VWS V14.01,2013-10-16 06:01:00,
2013-10-16 01:02:00,48.6,47.8,24.89,South,172,2.7,2.7,97,0.00,,---,0.00,VWS V14.01,2013-10-16 06:02:00,
2013-10-16 01:04:00,48.6,47.8,24.89,SSE,167,4.0,4.0,97,0.00,,---,0.00,VWS V14.01,2013-10-16 06:04:00,
2013-10-16 01:05:00,48.4,47.6,24.89,SSE,161,3.1,4.0,97,0.00,,---,0.00,VWS V14.01,2013-10-16 06:05:00,
2013-10-16 01:06:00,48.4,47.6,24.89,SSE,161,3.1,3.1,97,0.00,,---,0.00,VWS V14.01,2013-10-16 06:06:00,
2013-10-16 01:07:00,48.4,47.6,24.89,SSE,161,3.1,3.1,97,0.00,,---,0.00,VWS V14.01,2013-10-16 06:07:00,
2013-10-16 01:09:00,48.4,47.6,24.89,SE,141,3.1,3.1,97,0.00,,---,0.00,VWS V14.01,2013-10-16 06:09:00,
2013-10-16 01:11:00,48.4,47.6,24.89,SE,141,3.1,3.1,97,0.00,,---,0.00,VWS V14.01,2013-10-16 06:11:00,
2013-10-16 01:12:00,48.4,47.6,24.89,SE,144,3.1,3.1,97,0.00,,---,0.00,VWS V14.01,2013-10-16 06:12:00,
2013-10-16 01:13:00,48.4,47.6,24.89,SE,144,3.1,3.1,97,0.00,,---,0.00,VWS V14.01,2013-10-16 06:13:00,
2013-10-16 01:14:00,48.4,47.6,24.89,SE,144,3.1,3.1,97,0.00,,---,0.00,VWS V14.01,2013-10-16 06:14:00,
2013-10-16 01:16:00,48.4,47.6,24.89,South,171,3.6,3.6,97,0.00,,---,0.00,VWS V14.01,2013-10-16 06:16:00,
2013-10-16 01:18:00,48.4,47.6,24.89,South,171,3.6,3.6,97,0.00,,---,0.00,VWS V14.01,2013-10-16 06:18:00,
2013-10-16 01:21:00,48.4,47.6,24.89,SSE,154,4.5,4.5,97,0.00,,---,0.00,VWS V14.01,2013-10-16 06:21:00,
2013-10-16 01:23:00,48.2,47.4,24.89,SSE,154,4.5,4.5,97,0.00,,---,0.00,VWS V14.01,2013-10-16 06:23:00,
2013-10-16 01:26:00,48.2,47.4,24.89,SSE,154,4.5,4.5,97,0.00,,---,0.00,VWS V14.01,2013-10-16 06:26:00,
2013-10-16 01:27:00,48.2,47.4,24.89,SSE,154,4.5,4.5,97,0.00,,---,0.00,VWS V14.01,2013-10-16 06:27:00,
2013-10-16 01:28:00,48.2,47.4,24.89,SSE,168,2.7,2.7,97,0.00,,---,0.00,VWS V14.01,2013-10-16 06:28:00,
2013-10-16 01:31:00,48.2,47.4,24.89,SSE,168,2.2,2.2,97,0.00,,---,0.00,VWS V14.01,2013-10-16 06:31:00,
2013-10-16 01:32:00,48.2,47.4,24.89,SSE,168,2.2,2.2,97,0.00,,---,0.00,VWS V14.01,2013-10-16 06:32:00,
2013-10-16 01:33:00,48.2,47.4,24.89,SSE,168,2.2,2.2,97,0.00,,---,0.00,VWS V14.01,2013-10-16 06:33:00,
2013-10-16 01:36:00,48.2,47.4,24.89,SSE,168,2.2,2.2,97,0.00,,---,0.00,VWS V14.01,2013-10-16 06:36:00,
2013-10-16 01:37:00,48.2,47.4,24.89,SSE,168,2.2,2.2,97,0.00,,---,0.00,VWS V14.01,2013-10-16 06:37:00,
2013-10-16 01:38:00,48.2,47.4,24.89,South,169,4.0,4.0,97,0.00,,---,0.00,VWS V14.01,2013-10-16 06:38:00,
2013-10-16 01:39:00,48.2,47.4,24.89,SSE,153,3.1,4.0,97,0.00,,---,0.00,VWS V14.01,2013-10-16 06:39:00,
2013-10-16 01:41:00,48.4,47.6,24.89,SSE,153,3.1,3.1,97,0.00,,---,0.00,VWS V14.01,2013-10-16 06:41:00,
2013-10-16 01:42:00,48.4,47.6,24.89,SSE,153,3.1,3.1,97,0.00,,---,0.00,VWS V14.01,2013-10-16 06:42:00,
2013-10-16 01:43:00,48.4,47.6,24.89,SSE,153,3.1,3.1,97,0.00,,---,0.00,VWS V14.01,2013-10-16 06:43:00,
2013-10-16 01:44:00,48.4,47.6,24.89,SSE,153,3.1,3.1,97,0.00,,---,0.00,VWS V14.01,2013-10-16 06:44:00,
2013-10-16 01:46:00,48.4,47.6,24.89,South,177,4.0,4.0,97,0.00,,---,0.00,VWS V14.01,2013-10-16 06:46:00,
2013-10-16 01:47:00,48.4,47.6,24.89,South,177,4.0,4.0,97,0.00,,---,0.00,VWS V14.01,2013-10-16 06:47:00,
2013-10-16 01:48:00,48.2,47.4,24.89,South,177,4.0,4.0,97,0.00,,---,0.00,VWS V14.01,2013-10-16 06:48:00,
2013-10-16 01:49:00,48.2,47.4,24.89,South,177,4.0,4.0,97,0.00,,---,0.00,VWS V14.01,2013-10-16 06:49:00,
2013-10-16 01:51:00,48.2,47.4,24.89,SSE,167,2.2,2.2,97,0.00,,---,0.00,VWS V14.01,2013-10-16 06:51:00,
2013-10-16 01:53:00,48.2,47.4,24.89,SSE,167,2.2,2.2,97,0.00,,---,0.00,VWS V14.01,2013-10-16 06:53:00,
2013-10-16 01:54:00,48.2,47.4,24.89,SSE,167,2.2,2.2,97,0.00,,---,0.00,VWS V14.01,2013-10-16 06:54:00,
2013-10-16 01:55:00,48.2,47.4,24.89,SE,143,0.0,2.2,97,0.00,,---,0.00,VWS V14.01,2013-10-16 06:55:00,
2013-10-16 01:57:00,48.2,47.4,24.89,SE,143,2.2,2.2,97,0.00,,---,0.00,VWS V14.01,2013-10-16 06:57:00,
2013-10-16 01:58:00,48.2,47.4,24.89,SE,143,2.2,2.2,97,0.00,,---,0.00,VWS V14.01,2013-10-16 06:58:00,
2013-10-16 01:59:00,48.2,47.4,24.89,SE,143,2.2,2.2,97,0.00,,---,0.00,VWS V14.01,2013-10-16 06:59:00,
2013-10-16 02:00:00,48.2,47.4,24.89,SE,143,2.2,2.2,97,0.00,,---,0.00,VWS V14.01,2013-10-16 07:00:00,
2013-10-16 02:02:00,48.2,47.4,24.89,SSE,154,3.1,3.1,97,0.00,,---,0.00,VWS V14.01,2013-10-16 07:02:00,
2013-10-16 02:03:00,48.2,47.4,24.89,SSE,152,2.2,3.1,97,0.00,,---,0.00,VWS V14.01,2013-10-16 07:03:00,
2013-10-16 02:04:00,48.2,47.4,24.89,SSE,152,2.2,3.1,97,0.00,,---,0.00,VWS V14.01,2013-10-16 07:04:00,
2013-10-16 02:06:00,48.0,47.5,24.89,SSE,152,2.2,2.2,98,0.00,,---,0.00,VWS V14.01,2013-10-16 07:06:00,
2013-10-16 02:07:00,48.0,47.5,24.89,SSE,152,2.2,2.2,98,0.00,,---,0.00,VWS V14.01,2013-10-16 07:07:00,
2013-10-16 02:08:00,48.0,47.5,24.89,SSE,152,2.2,2.2,98,0.00,,---,0.00,VWS V14.01,2013-10-16 07:08:00,
2013-10-16 02:09:00,48.0,47.5,24.89,SSE,152,2.2,2.2,98,0.00,,---,0.00,VWS V14.01,2013-10-16 07:09:00,
2013-10-16 02:11:00,48.0,47.5,24.89,SSE,152,2.2,2.2,98,0.00,,---,0.00,VWS V14.01,2013-10-16 07:11:00,
2013-10-16 02:12:00,48.0,47.5,24.89,ESE,119,4.0,4.0,98,0.00,,---,0.00,VWS V14.01,2013-10-16 07:12:00,
2013-10-16 02:14:00,47.8,47.0,24.89,ESE,119,4.0,4.0,97,0.00,,---,0.00,VWS V14.01,2013-10-16 07:14:00,
2013-10-16 02:16:00,47.8,47.0,24.89,SSE,154,3.1,3.1,97,0.00,,---,0.00,VWS V14.01,2013-10-16 07:16:00,
2013-10-16 02:17:00,47.8,47.0,24.89,SSE,154,3.1,3.1,97,0.00,,---,0.00,VWS V14.01,2013-10-16 07:17:00,
2013-10-16 02:19:00,47.8,47.0,24.89,SSE,154,3.1,3.1,97,0.00,,---,0.00,VWS V14.01,2013-10-16 07:19:00,
2013-10-16 02:20:00,47.8,47.0,24.89,SSE,154,3.1,3.1,97,0.00,,---,0.00,VWS V14.01,2013-10-16 07:20:00,
2013-10-16 02:21:00,47.8,47.0,24.89,SSE,151,2.7,2.7,97,0.00,,---,0.00,VWS V14.01,2013-10-16 07:21:00,
2013-10-16 02:23:00,47.7,46.8,24.89,SSE,161,2.7,2.7,97,0.00,,---,0.00,VWS V14.01,2013-10-16 07:23:00,
2013-10-16 02:24:00,47.7,46.8,24.89,SSE,161,2.7,2.7,97,0.00,,---,0.00,VWS V14.01,2013-10-16 07:24:00,
2013-10-16 02:25:00,47.7,46.8,24.89,SSE,161,2.7,2.7,97,0.00,,---,0.00,VWS V14.01,2013-10-16 07:25:00,
2013-10-16 02:27:00,47.7,46.8,24.89,SSE,161,2.7,2.7,97,0.00,,---,0.00,VWS V14.01,2013-10-16 07:27:00,
2013-10-16 02:28:00,47.7,46.8,24.89,SSE,161,2.7,2.7,97,0.00,,---,0.00,VWS V14.01,2013-10-16 07:28:00,
2013-10-16 02:29:00,47.7,46.8,24.89,SSE,165,2.2,2.2,97,0.00,,---,0.00,VWS V14.01,2013-10-16 07:29:00,
2013-10-16 02:30:00,47.7,46.8,24.89,SSE,165,2.2,2.2,97,0.00,,---,0.00,VWS V14.01,2013-10-16 07:30:00,
2013-10-16 02:31:00,47.7,46.8,24.89,SSE,165,2.2,2.2,97,0.00,,---,0.00,VWS V14.01,2013-10-16 07:31:00,
2013-10-16 02:33:00,47.7,46.8,24.89,SSE,165,2.2,2.2,97,0.00,,---,0.00,VWS V14.01,2013-10-16 07:33:00,
2013-10-16 02:34:00,47.7,46.8,24.89,SSE,168,2.2,2.2,97,0.00,,---,0.00,VWS V14.01,2013-10-16 07:34:00,
2013-10-16 02:35:00,47.7,46.8,24.89,SSE,168,2.2,2.2,97,0.00,,---,0.00,VWS V14.01,2013-10-16 07:35:00,
2013-10-16 02:36:00,47.8,47.3,24.89,SSE,168,2.2,2.2,98,0.00,,---,0.00,VWS V14.01,2013-10-16 07:36:00,
2013-10-16 02:38:00,48.0,47.5,24.89,SSE,156,3.1,3.1,98,0.00,,---,0.00,VWS V14.01,2013-10-16 07:38:00,
2013-10-16 02:39:00,48.0,47.5,24.89,SSE,156,3.1,3.1,98,0.00,,---,0.00,VWS V14.01,2013-10-16 07:39:00,
2013-10-16 02:40:00,48.0,47.5,24.89,SSE,156,3.1,3.1,98,0.00,,---,0.00,VWS V14.01,2013-10-16 07:40:00,
2013-10-16 02:41:00,48.0,47.5,24.89,SSE,156,3.1,3.1,98,0.00,,---,0.00,VWS V14.01,2013-10-16 07:41:00,
2013-10-16 02:44:00,48.0,47.5,24.89,SSE,156,3.1,3.1,98,0.00,,---,0.00,VWS V14.01,2013-10-16 07:44:00,
2013-10-16 02:45:00,48.0,47.5,24.89,SSE,158,3.1,3.1,98,0.00,,---,0.00,VWS V14.01,2013-10-16 07:45:00,
2013-10-16 02:47:00,48.0,47.5,24.89,SSE,159,3.1,3.1,98,0.00,,---,0.00,VWS V14.01,2013-10-16 07:47:00,
2013-10-16 02:49:00,48.0,47.5,24.89,SSE,159,3.1,3.1,98,0.00,,---,0.00,VWS V14.01,2013-10-16 07:49:00,
2013-10-16 02:51:00,48.0,47.5,24.89,SSE,159,3.1,3.1,98,0.00,,---,0.00,VWS V14.01,2013-10-16 07:51:00,
2013-10-16 02:52:00,48.0,47.5,24.86,SSE,159,3.1,3.1,98,0.00,,---,0.00,VWS V14.01,2013-10-16 07:52:00,
2013-10-16 02:54:00,48.0,47.5,24.86,SSE,159,3.1,3.1,98,0.00,,---,0.00,VWS V14.01,2013-10-16 07:54:00,
2013-10-16 02:55:00,48.0,47.5,24.86,SSE,159,3.1,3.1,98,0.00,,---,0.00,VWS V14.01,2013-10-16 07:55:00,
2013-10-16 02:56:00,48.0,47.5,24.86,ESE,108,0.0,0.0,98,0.00,,---,0.00,VWS V14.01,2013-10-16 07:56:00,
2013-10-16 02:57:00,48.0,47.5,24.86,ESE,108,0.0,0.0,98,0.00,,---,0.00,VWS V14.01,2013-10-16 07:57:00,
2013-10-16 02:59:00,48.0,47.5,24.86,ESE,108,0.0,0.0,98,0.00,,---,0.00,VWS V14.01,2013-10-16 07:59:00,
2013-10-16 03:00:00,48.0,47.5,24.86,ESE,108,0.0,0.0,98,0.00,,---,0.00,VWS V14.01,2013-10-16 08:00:00,
2013-10-16 03:01:00,48.0,47.5,24.86,ESE,108,0.0,0.0,98,0.00,,---,0.00,VWS V14.01,2013-10-16 08:01:00,
2013-10-16 03:03:00,48.0,47.5,24.86,East,101,3.1,3.1,98,0.00,,---,0.00,VWS V14.01,2013-10-16 08:03:00,
2013-10-16 03:04:00,48.0,47.5,24.86,East,101,0.0,0.0,98,0.00,,---,0.00,VWS V14.01,2013-10-16 08:04:00,
2013-10-16 03:05:00,48.0,47.5,24.86,East,101,0.0,0.0,98,0.00,,---,0.00,VWS V14.01,2013-10-16 08:05:00,
2013-10-16 03:06:00,48.0,47.5,24.86,ESE,114,0.0,0.0,98,0.00,,---,0.00,VWS V14.01,2013-10-16 08:06:00,
2013-10-16 03:08:00,48.0,47.5,24.89,ESE,114,0.0,0.0,98,0.00,,---,0.00,VWS V14.01,2013-10-16 08:08:00,
2013-10-16 03:10:00,48.0,47.5,24.89,ESE,114,0.0,0.0,98,0.00,,---,0.00,VWS V14.01,2013-10-16 08:10:00,
2013-10-16 03:11:00,48.0,47.5,24.89,South,176,0.0,0.0,98,0.00,,---,0.00,VWS V14.01,2013-10-16 08:11:00,
2013-10-16 03:13:00,48.0,47.5,24.89,South,176,0.0,0.0,98,0.00,,---,0.00,VWS V14.01,2013-10-16 08:13:00,
2013-10-16 03:15:00,48.0,47.5,24.89,South,176,0.0,0.0,98,0.00,,---,0.00,VWS V14.01,2013-10-16 08:15:00,
2013-10-16 03:16:00,48.0,47.5,24.89,South,176,0.0,0.0,98,0.00,,---,0.00,VWS V14.01,2013-10-16 08:16:00,
2013-10-16 03:19:00,48.0,47.5,24.89,SSE,165,2.7,2.7,98,0.00,,---,0.00,VWS V14.01,2013-10-16 08:19:00,
2013-10-16 03:20:00,48.0,47.5,24.89,SSE,165,2.7,2.7,98,0.00,,---,0.00,VWS V14.01,2013-10-16 08:20:00,
2013-10-16 03:21:00,47.8,47.3,24.89,South,170,2.2,2.7,98,0.00,,---,0.00,VWS V14.01,2013-10-16 08:21:00,
2013-10-16 03:22:00,47.8,47.3,24.89,South,170,2.7,2.7,98,0.00,,---,0.00,VWS V14.01,2013-10-16 08:22:00,
2013-10-16 03:24:00,47.8,47.3,24.86,South,170,2.7,2.7,98,0.00,,---,0.00,VWS V14.01,2013-10-16 08:24:00,
2013-10-16 03:25:00,47.8,47.3,24.86,South,170,2.7,2.7,98,0.00,,---,0.00,VWS V14.01,2013-10-16 08:25:00,
2013-10-16 03:26:00,47.8,47.3,24.86,South,170,2.7,2.7,98,0.00,,---,0.00,VWS V14.01,2013-10-16 08:26:00,
2013-10-16 03:27:00,47.8,47.3,24.86,South,170,2.7,2.7,98,0.00,,---,0.00,VWS V14.01,2013-10-16 08:27:00,
2013-10-16 03:29:00,47.8,47.3,24.86,South,170,0.0,2.2,98,0.00,,---,0.00,VWS V14.01,2013-10-16 08:29:00,
2013-10-16 03:30:00,47.8,47.3,24.86,South,170,0.0,0.0,98,0.00,,---,0.00,VWS V14.01,2013-10-16 08:30:00,
2013-10-16 03:31:00,47.8,47.3,24.86,South,170,0.0,0.0,98,0.00,,---,0.00,VWS V14.01,2013-10-16 08:31:00,
2013-10-16 03:32:00,47.8,47.3,24.86,South,170,0.0,0.0,98,0.00,,---,0.00,VWS V14.01,2013-10-16 08:32:00,
2013-10-16 03:35:00,47.8,47.3,24.86,South,170,0.0,0.0,98,0.00,,---,0.00,VWS V14.01,2013-10-16 08:35:00,
2013-10-16 03:36:00,47.8,47.3,24.86,South,170,0.0,0.0,98,0.00,,---,0.00,VWS V14.01,2013-10-16 08:36:00,
2013-10-16 03:37:00,47.8,47.3,24.86,South,170,0.0,0.0,98,0.00,,---,0.00,VWS V14.01,2013-10-16 08:37:00,
2013-10-16 03:38:00,47.8,47.3,24.86,South,170,0.0,0.0,98,0.00,,---,0.00,VWS V14.01,2013-10-16 08:38:00,
2013-10-16 03:40:00,47.8,47.3,24.86,South,170,0.0,0.0,98,0.00,,---,0.00,VWS V14.01,2013-10-16 08:40:00,
2013-10-16 03:41:00,47.8,47.3,24.86,South,170,0.0,0.0,98,0.00,,---,0.00,VWS V14.01,2013-10-16 08:41:00,
2013-10-16 03:42:00,47.8,47.3,24.86,South,170,0.0,0.0,98,0.00,,---,0.00,VWS V14.01,2013-10-16 08:42:00,
2013-10-16 03:43:00,47.8,47.3,24.86,South,170,0.0,0.0,98,0.00,,---,0.00,VWS V14.01,2013-10-16 08:43:00,
2013-10-16 03:45:00,47.8,47.3,24.86,South,170,0.0,0.0,98,0.00,,---,0.00,VWS V14.01,2013-10-16 08:45:00,
2013-10-16 03:46:00,47.8,47.3,24.86,South,170,0.0,0.0,98,0.00,,---,0.00,VWS V14.01,2013-10-16 08:46:00,
2013-10-16 03:47:00,47.8,47.3,24.86,South,170,0.0,0.0,98,0.00,,---,0.00,VWS V14.01,2013-10-16 08:47:00,
2013-10-16 03:48:00,47.8,47.3,24.86,South,170,0.0,0.0,98,0.00,,---,0.00,VWS V14.01,2013-10-16 08:48:00,
2013-10-16 03:51:00,47.8,47.3,24.86,South,170,0.0,0.0,98,0.00,,---,0.00,VWS V14.01,2013-10-16 08:51:00,
2013-10-16 03:52:00,47.8,47.3,24.86,South,170,0.0,0.0,98,0.00,,---,0.00,VWS V14.01,2013-10-16 08:52:00,
2013-10-16 03:53:00,47.8,47.3,24.86,South,170,0.0,0.0,98,0.00,,---,0.00,VWS V14.01,2013-10-16 08:53:00,
2013-10-16 03:56:00,47.8,47.3,24.86,South,170,0.0,0.0,98,0.00,,---,0.00,VWS V14.01,2013-10-16 08:56:00,
2013-10-16 03:57:00,47.8,47.3,24.86,South,170,0.0,0.0,98,0.00,,---,0.00,VWS V14.01,2013-10-16 08:57:00,
2013-10-16 03:58:00,47.8,47.3,24.86,South,170,0.0,0.0,98,0.00,,---,0.00,VWS V14.01,2013-10-16 08:58:00,
2013-10-16 03:59:00,47.8,47.3,24.86,South,170,0.0,0.0,98,0.00,,---,0.00,VWS V14.01,2013-10-16 08:59:00,
2013-10-16 04:01:00,47.8,47.3,24.86,South,170,0.0,0.0,98,0.00,,---,0.00,VWS V14.01,2013-10-16 09:01:00,
2013-10-16 04:02:00,47.8,47.3,24.86,South,170,0.0,0.0,98,0.00,,---,0.00,VWS V14.01,2013-10-16 09:02:00,
2013-10-16 04:03:00,47.8,47.3,24.86,South,170,0.0,0.0,98,0.00,,---,0.00,VWS V14.01,2013-10-16 09:03:00,
2013-10-16 04:04:00,47.8,47.3,24.86,South,170,0.0,0.0,98,0.00,,---,0.00,VWS V14.01,2013-10-16 09:04:00,
2013-10-16 04:06:00,47.8,47.3,24.86,South,170,0.0,0.0,98,0.00,,---,0.00,VWS V14.01,2013-10-16 09:06:00,
2013-10-16 04:07:00,47.8,47.3,24.86,South,170,0.0,0.0,98,0.00,,---,0.00,VWS V14.01,2013-10-16 09:07:00,
2013-10-16 04:08:00,47.8,47.3,24.86,South,170,0.0,0.0,98,0.00,,---,0.00,VWS V14.01,2013-10-16 09:08:00,
2013-10-16 04:09:00,47.8,47.3,24.86,South,170,0.0,0.0,98,0.00,,---,0.00,VWS V14.01,2013-10-16 09:09:00,
2013-10-16 04:11:00,47.8,47.3,24.86,South,170,0.0,0.0,98,0.00,,---,0.00,VWS V14.01,2013-10-16 09:11:00,
2013-10-16 04:12:00,47.8,47.3,24.86,South,170,0.0,0.0,98,0.00,,---,0.00,VWS V14.01,2013-10-16 09:12:00,
2013-10-16 04:13:00,47.8,47.3,24.86,South,170,0.0,0.0,98,0.00,,---,0.00,VWS V14.01,2013-10-16 09:13:00,
2013-10-16 04:14:00,47.8,47.3,24.86,South,170,0.0,0.0,98,0.00,,---,0.00,VWS V14.01,2013-10-16 09:14:00,
2013-10-16 04:16:00,47.8,47.3,24.86,South,170,0.0,0.0,98,0.00,,---,0.00,VWS V14.01,2013-10-16 09:16:00,
2013-10-16 04:17:00,47.8,47.3,24.86,South,170,0.0,0.0,98,0.00,,---,0.00,VWS V14.01,2013-10-16 09:17:00,
2013-10-16 04:18:00,47.8,47.3,24.86,South,170,0.0,0.0,98,0.00,,---,0.00,VWS V14.01,2013-10-16 09:18:00,
2013-10-16 04:19:00,47.8,47.3,24.86,South,170,0.0,0.0,98,0.00,,---,0.00,VWS V14.01,2013-10-16 09:19:00,
2013-10-16 04:21:00,47.8,47.3,24.86,South,170,0.0,0.0,98,0.00,,---,0.00,VWS V14.01,2013-10-16 09:21:00,
2013-10-16 04:22:00,47.8,47.3,24.86,South,170,0.0,0.0,98,0.00,,---,0.00,VWS V14.01,2013-10-16 09:22:00,
2013-10-16 04:23:00,47.8,47.3,24.86,South,170,0.0,0.0,98,0.00,,---,0.00,VWS V14.01,2013-10-16 09:23:00,
2013-10-16 04:24:00,47.8,47.3,24.86,South,170,0.0,0.0,98,0.00,,---,0.00,VWS V14.01,2013-10-16 09:24:00,
2013-10-16 04:26:00,47.8,47.3,24.86,South,170,0.0,0.0,98,0.00,,---,0.00,VWS V14.01,2013-10-16 09:26:00,
2013-10-16 04:27:00,48.0,47.5,24.86,South,170,0.0,0.0,98,0.00,,---,0.00,VWS V14.01,2013-10-16 09:27:00,
2013-10-16 04:29:00,48.0,47.5,24.86,South,170,0.0,0.0,98,0.00,,---,0.00,VWS V14.01,2013-10-16 09:29:00,
2013-10-16 04:31:00,48.0,47.5,24.86,South,170,0.0,0.0,98,0.00,,---,0.00,VWS V14.01,2013-10-16 09:31:00,
2013-10-16 04:32:00,48.0,47.5,24.86,South,170,0.0,0.0,98,0.00,,---,0.00,VWS V14.01,2013-10-16 09:32:00,
2013-10-16 04:34:00,48.0,47.5,24.86,South,170,0.0,0.0,98,0.00,,---,0.00,VWS V14.01,2013-10-16 09:34:00,
2013-10-16 04:36:00,48.0,47.5,24.86,South,170,0.0,0.0,98,0.00,,---,0.00,VWS V14.01,2013-10-16 09:36:00,
2013-10-16 04:37:00,48.0,47.5,24.86,South,170,0.0,0.0,98,0.00,,---,0.00,VWS V14.01,2013-10-16 09:37:00,
2013-10-16 04:39:00,48.0,47.5,24.86,South,170,0.0,0.0,98,0.00,,---,0.00,VWS V14.01,2013-10-16 09:39:00,
2013-10-16 04:40:00,48.0,47.5,24.86,South,170,0.0,0.0,98,0.00,,---,0.00,VWS V14.01,2013-10-16 09:40:00,
2013-10-16 04:42:00,48.0,47.5,24.86,South,170,0.0,0.0,98,0.00,,---,0.00,VWS V14.01,2013-10-16 09:42:00,
2013-10-16 04:43:00,48.0,47.5,24.86,South,170,0.0,0.0,98,0.00,,---,0.00,VWS V14.01,2013-10-16 09:43:00,
2013-10-16 04:44:00,48.0,47.5,24.86,South,170,0.0,0.0,98,0.00,,---,0.00,VWS V14.01,2013-10-16 09:44:00,
2013-10-16 04:45:00,48.0,47.5,24.86,South,170,0.0,0.0,98,0.00,,---,0.00,VWS V14.01,2013-10-16 09:45:00,
2013-10-16 04:47:00,48.0,47.5,24.86,South,169,0.0,0.0,98,0.00,,---,0.00,VWS V14.01,2013-10-16 09:47:00,
2013-10-16 04:48:00,48.0,47.5,24.86,South,169,0.0,0.0,98,0.00,,---,0.00,VWS V14.01,2013-10-16 09:48:00,
2013-10-16 04:50:00,48.0,47.5,24.86,South,169,0.0,0.0,98,0.00,,---,0.00,VWS V14.01,2013-10-16 09:50:00,
2013-10-16 04:51:00,48.0,47.5,24.86,South,169,0.0,0.0,98,0.00,,---,0.00,VWS V14.01,2013-10-16 09:51:00,
2013-10-16 04:52:00,48.0,47.5,24.86,South,169,0.0,0.0,98,0.00,,---,0.00,VWS V14.01,2013-10-16 09:52:00,
2013-10-16 04:53:00,48.0,47.5,24.86,South,169,0.0,0.0,98,0.00,,---,0.00,VWS V14.01,2013-10-16 09:53:00,
2013-10-16 04:55:00,48.0,47.5,24.86,South,169,0.0,0.0,98,0.00,,---,0.00,VWS V14.01,2013-10-16 09:55:00,
2013-10-16 04:56:00,48.0,47.5,24.86,South,169,0.0,0.0,98,0.00,,---,0.00,VWS V14.01,2013-10-16 09:56:00,
2013-10-16 04:57:00,48.0,47.5,24.86,SSE,165,0.0,0.0,98,0.00,,---,0.00,VWS V14.01,2013-10-16 09:57:00,
2013-10-16 04:58:00,48.0,47.5,24.86,SSE,165,0.0,0.0,98,0.00,,---,0.00,VWS V14.01,2013-10-16 09:58:00,
2013-10-16 05:00:00,48.0,47.5,24.86,SSE,165,0.0,0.0,98,0.00,,---,0.00,VWS V14.01,2013-10-16 10:00:00,
2013-10-16 05:01:00,48.0,47.5,24.86,SSE,165,0.0,0.0,98,0.00,,---,0.00,VWS V14.01,2013-10-16 10:01:00,
2013-10-16 05:02:00,48.0,47.5,24.86,SSE,165,0.0,0.0,98,0.00,,---,0.00,VWS V14.01,2013-10-16 10:02:00,
2013-10-16 05:03:00,48.0,47.5,24.86,SSE,165,0.0,0.0,98,0.00,,---,0.00,VWS V14.01,2013-10-16 10:03:00,
2013-10-16 05:05:00,48.0,47.5,24.86,SSE,152,2.2,2.2,98,0.00,,---,0.00,VWS V14.01,2013-10-16 10:05:00,
2013-10-16 05:06:00,48.0,47.5,24.86,SSE,152,2.2,2.2,98,0.00,,---,0.00,VWS V14.01,2013-10-16 10:06:00,
2013-10-16 05:07:00,48.0,47.5,24.86,SSE,152,0.0,0.0,98,0.00,,---,0.00,VWS V14.01,2013-10-16 10:07:00,
2013-10-16 05:08:00,48.0,47.5,24.86,SSE,152,0.0,0.0,98,0.00,,---,0.00,VWS V14.01,2013-10-16 10:08:00,
2013-10-16 05:10:00,48.0,47.5,24.86,SSE,152,0.0,0.0,98,0.00,,---,0.00,VWS V14.01,2013-10-16 10:10:00,
2013-10-16 05:11:00,48.0,47.5,24.86,SSE,152,0.0,0.0,98,0.00,,---,0.00,VWS V14.01,2013-10-16 10:11:00,
2013-10-16 05:13:00,48.0,47.5,24.86,SSE,152,0.0,0.0,98,0.00,,---,0.00,VWS V14.01,2013-10-16 10:13:00,
2013-10-16 05:16:00,48.0,47.5,24.86,SSE,152,0.0,0.0,98,0.00,,---,0.00,VWS V14.01,2013-10-16 10:16:00,
2013-10-16 05:18:00,48.0,47.5,24.86,SE,141,3.1,3.1,98,0.00,,---,0.00,VWS V14.01,2013-10-16 10:18:00,
2013-10-16 05:21:00,48.0,47.5,24.86,SE,141,3.1,3.1,98,0.00,,---,0.00,VWS V14.01,2013-10-16 10:21:00,
2013-10-16 05:23:00,48.0,47.5,24.86,SE,139,3.6,3.6,98,0.00,,---,0.00,VWS V14.01,2013-10-16 10:23:00,
2013-10-16 05:24:00,48.0,47.5,24.86,SE,139,3.6,3.6,98,0.00,,---,0.00,VWS V14.01,2013-10-16 10:24:00,
2013-10-16 05:26:00,48.0,47.5,24.86,SE,145,2.7,2.7,98,0.00,,---,0.00,VWS V14.01,2013-10-16 10:26:00,
2013-10-16 05:27:00,48.0,47.5,24.86,SE,145,2.7,2.7,98,0.00,,---,0.00,VWS V14.01,2013-10-16 10:27:00,
2013-10-16 05:28:00,48.0,47.5,24.86,SE,145,2.7,2.7,98,0.00,,---,0.00,VWS V14.01,2013-10-16 10:28:00,
2013-10-16 05:29:00,48.0,47.5,24.86,SE,145,2.7,2.7,98,0.00,,---,0.00,VWS V14.01,2013-10-16 10:29:00,
2013-10-16 05:32:00,48.0,47.5,24.86,SE,140,0.0,0.0,98,0.00,,---,0.00,VWS V14.01,2013-10-16 10:32:00,
2013-10-16 05:33:00,47.8,47.3,24.86,SE,140,0.0,0.0,98,0.00,,---,0.00,VWS V14.01,2013-10-16 10:33:00,
2013-10-16 05:34:00,47.8,47.3,24.86,SE,140,0.0,0.0,98,0.00,,---,0.00,VWS V14.01,2013-10-16 10:34:00,
2013-10-16 05:37:00,47.8,47.3,24.86,SE,140,0.0,0.0,98,0.00,,---,0.00,VWS V14.01,2013-10-16 10:37:00,
2013-10-16 05:38:00,47.8,47.3,24.86,SE,140,0.0,0.0,98,0.00,,---,0.00,VWS V14.01,2013-10-16 10:38:00,
2013-10-16 05:39:00,47.8,47.3,24.86,SE,141,3.6,3.6,98,0.00,,---,0.00,VWS V14.01,2013-10-16 10:39:00,
2013-10-16 05:42:00,47.8,47.3,24.86,SE,141,3.1,3.1,98,0.00,,---,0.00,VWS V14.01,2013-10-16 10:42:00,
2013-10-16 05:43:00,47.8,47.3,24.86,SE,141,3.1,3.1,98,0.00,,---,0.00,VWS V14.01,2013-10-16 10:43:00,
2013-10-16 05:44:00,47.8,47.3,24.86,SE,141,3.1,3.1,98,0.00,,---,0.00,VWS V14.01,2013-10-16 10:44:00,
2013-10-16 05:45:00,47.8,47.3,24.86,SE,144,2.7,3.1,98,0.00,,---,0.00,VWS V14.01,2013-10-16 10:45:00,
2013-10-16 05:48:00,47.8,47.3,24.86,SSE,147,2.2,2.7,98,0.00,,---,0.00,VWS V14.01,2013-10-16 10:48:00,
2013-10-16 05:50:00,47.8,47.3,24.86,SSE,147,2.2,2.2,98,0.00,,---,0.00,VWS V14.01,2013-10-16 10:50:00,
2013-10-16 05:51:00,47.8,47.3,24.86,SSE,147,2.2,2.2,98,0.00,,---,0.00,VWS V14.01,2013-10-16 10:51:00,
2013-10-16 05:53:00,47.8,47.3,24.86,SSE,147,2.2,2.2,98,0.00,,---,0.00,VWS V14.01,2013-10-16 10:53:00,
2013-10-16 05:55:00,47.8,47.3,24.86,SSE,147,0.0,0.0,98,0.00,,---,0.00,VWS V14.01,2013-10-16 10:55:00,
2013-10-16 05:56:00,47.8,47.3,24.86,SSE,147,0.0,0.0,98,0.00,,---,0.00,VWS V14.01,2013-10-16 10:56:00,
2013-10-16 05:57:00,47.8,47.3,24.86,SSE,147,0.0,0.0,98,0.00,,---,0.00,VWS V14.01,2013-10-16 10:57:00,
2013-10-16 05:58:00,48.0,47.5,24.86,SSE,147,0.0,0.0,98,0.00,,---,0.00,VWS V14.01,2013-10-16 10:58:00,
2013-10-16 06:01:00,47.8,47.3,24.86,SSE,147,0.0,0.0,98,0.00,,---,0.00,VWS V14.01,2013-10-16 11:01:00,
2013-10-16 06:02:00,47.8,47.3,24.86,SSE,147,0.0,0.0,98,0.00,,---,0.00,VWS V14.01,2013-10-16 11:02:00,
2013-10-16 06:03:00,47.8,47.3,24.86,SSE,147,0.0,0.0,98,0.00,,---,0.00,VWS V14.01,2013-10-16 11:03:00,
2013-10-16 06:06:00,47.8,47.3,24.86,SSE,147,0.0,0.0,98,0.00,,---,0.00,VWS V14.01,2013-10-16 11:06:00,
2013-10-16 06:07:00,47.8,47.3,24.86,SSE,147,0.0,0.0,98,0.00,,---,0.00,VWS V14.01,2013-10-16 11:07:00,
2013-10-16 06:08:00,48.0,47.5,24.86,SSE,147,0.0,0.0,98,0.00,,---,0.00,VWS V14.01,2013-10-16 11:08:00,
2013-10-16 06:11:00,48.0,47.5,24.86,SSE,147,0.0,0.0,98,0.00,,---,0.00,VWS V14.01,2013-10-16 11:11:00,
2013-10-16 06:12:00,48.0,47.5,24.86,SSE,147,0.0,0.0,98,0.00,,---,0.00,VWS V14.01,2013-10-16 11:12:00,
2013-10-16 06:13:00,48.0,47.5,24.86,SSE,147,0.0,0.0,98,0.00,,---,0.00,VWS V14.01,2013-10-16 11:13:00,
2013-10-16 06:14:00,48.0,47.5,24.86,SSE,147,0.0,0.0,98,0.00,,---,0.00,VWS V14.01,2013-10-16 11:14:00,
2013-10-16 06:16:00,47.8,47.3,24.86,SSE,147,0.0,0.0,98,0.00,,---,0.00,VWS V14.01,2013-10-16 11:16:00,
2013-10-16 06:18:00,47.8,47.3,24.86,SSE,147,0.0,0.0,98,0.00,,---,0.00,VWS V14.01,2013-10-16 11:18:00,
2013-10-16 06:19:00,47.8,47.3,24.86,SSE,147,0.0,0.0,98,0.00,,---,0.00,VWS V14.01,2013-10-16 11:19:00,
2013-10-16 06:20:00,47.8,47.3,24.86,SSE,147,0.0,0.0,98,0.00,,---,0.00,VWS V14.01,2013-10-16 11:20:00,
2013-10-16 06:21:00,47.8,47.3,24.86,SSE,147,0.0,0.0,98,0.00,,---,0.00,VWS V14.01,2013-10-16 11:21:00,
2013-10-16 06:22:00,47.8,47.3,24.86,SSE,147,0.0,0.0,98,0.00,,---,0.00,VWS V14.01,2013-10-16 11:22:00,
2013-10-16 06:23:00,48.0,47.5,24.86,SSE,147,0.0,0.0,98,0.00,,---,0.00,VWS V14.01,2013-10-16 11:23:00,
2013-10-16 06:24:00,48.0,47.5,24.86,SSE,147,0.0,0.0,98,0.00,,---,0.00,VWS V14.01,2013-10-16 11:24:00,
2013-10-16 06:25:00,48.0,47.5,24.86,SSE,147,0.0,0.0,98,0.00,,---,0.00,VWS V14.01,2013-10-16 11:25:00,
2013-10-16 06:26:00,48.0,47.5,24.86,SSE,147,0.0,0.0,98,0.00,,---,0.00,VWS V14.01,2013-10-16 11:26:00,
2013-10-16 06:27:00,48.0,47.5,24.86,SSE,147,0.0,0.0,98,0.00,,---,0.00,VWS V14.01,2013-10-16 11:27:00,
2013-10-16 06:29:00,47.8,47.3,24.86,SSE,148,0.0,0.0,98,0.00,,---,0.00,VWS V14.01,2013-10-16 11:29:00,
2013-10-16 06:30:00,47.8,47.3,24.86,SSE,148,0.0,0.0,98,0.00,,---,0.00,VWS V14.01,2013-10-16 11:30:00,
2013-10-16 06:34:00,48.0,47.5,24.86,SSE,148,0.0,0.0,98,0.00,,---,0.00,VWS V14.01,2013-10-16 11:34:00,
2013-10-16 06:35:00,48.0,47.5,24.86,SSE,148,0.0,0.0,98,0.00,,---,0.00,VWS V14.01,2013-10-16 11:35:00,
2013-10-16 06:39:00,48.0,47.5,24.86,SSE,148,0.0,0.0,98,0.00,,---,0.00,VWS V14.01,2013-10-16 11:39:00,
2013-10-16 06:40:00,48.0,47.5,24.86,SSE,148,0.0,0.0,98,0.00,,---,0.00,VWS V14.01,2013-10-16 11:40:00,
2013-10-16 06:44:00,48.0,47.5,24.86,SSE,148,0.0,0.0,98,0.00,,---,0.00,VWS V14.01,2013-10-16 11:44:00,
2013-10-16 06:45:00,48.0,47.5,24.86,SSE,148,0.0,0.0,98,0.00,,---,0.00,VWS V14.01,2013-10-16 11:45:00,
2013-10-16 06:49:00,48.0,47.5,24.86,SE,136,3.1,3.1,98,0.00,,---,0.00,VWS V14.01,2013-10-16 11:49:00,
2013-10-16 06:50:00,48.0,47.5,24.86,SE,136,3.1,3.1,98,0.00,,---,0.00,VWS V14.01,2013-10-16 11:50:00,
2013-10-16 06:51:00,48.0,47.5,24.86,SE,136,3.1,3.1,98,0.00,,---,0.00,VWS V14.01,2013-10-16 11:51:00,
2013-10-16 06:54:00,47.8,47.3,24.86,SE,137,3.1,3.1,98,0.00,,---,0.00,VWS V14.01,2013-10-16 11:54:00,
2013-10-16 06:55:00,47.8,47.3,24.86,SE,136,4.0,4.0,98,0.00,,---,0.00,VWS V14.01,2013-10-16 11:55:00,
2013-10-16 06:56:00,47.8,47.3,24.86,SE,136,4.0,4.0,98,0.00,,---,0.00,VWS V14.01,2013-10-16 11:56:00,
2013-10-16 06:59:00,47.8,47.3,24.86,SE,136,3.1,3.1,98,0.00,,---,0.00,VWS V14.01,2013-10-16 11:59:00,
2013-10-16 07:00:00,47.8,47.3,24.86,SE,136,3.1,3.1,98,0.00,,---,0.00,VWS V14.01,2013-10-16 12:00:00,
2013-10-16 07:01:00,47.8,47.3,24.86,SE,136,3.1,3.1,98,0.00,,---,0.00,VWS V14.01,2013-10-16 12:01:00,
2013-10-16 07:03:00,47.8,47.3,24.86,SE,146,3.1,3.1,98,0.00,,---,0.00,VWS V14.01,2013-10-16 12:03:00,
2013-10-16 07:04:00,47.8,47.3,24.86,SSE,147,3.1,3.1,98,0.00,,---,0.00,VWS V14.01,2013-10-16 12:04:00,
2013-10-16 07:06:00,47.8,47.3,24.86,SSE,157,3.1,3.1,98,0.00,,---,0.00,VWS V14.01,2013-10-16 12:06:00,
2013-10-16 07:07:00,47.8,47.3,24.86,SSE,157,3.1,3.1,98,0.00,,---,0.00,VWS V14.01,2013-10-16 12:07:00,
2013-10-16 07:08:00,47.8,47.3,24.86,SSE,161,2.7,2.7,98,0.00,,---,0.00,VWS V14.01,2013-10-16 12:08:00,
2013-10-16 07:09:00,47.8,47.3,24.86,SSE,161,2.7,2.7,98,0.00,,---,0.00,VWS V14.01,2013-10-16 12:09:00,
2013-10-16 07:11:00,47.8,47.3,24.86,SSE,161,2.7,2.7,98,0.00,,---,0.00,VWS V14.01,2013-10-16 12:11:00,
2013-10-16 07:12:00,47.8,47.3,24.86,SSE,165,2.7,2.7,98,0.00,,---,0.00,VWS V14.01,2013-10-16 12:12:00,
2013-10-16 07:13:00,47.8,47.3,24.86,SSE,165,2.7,2.7,98,0.00,,---,0.00,VWS V14.01,2013-10-16 12:13:00,
2013-10-16 07:14:00,47.8,47.3,24.86,SSE,165,2.2,2.7,98,0.00,,---,0.00,VWS V14.01,2013-10-16 12:14:00,
2013-10-16 07:16:00,47.8,47.3,24.86,SSE,165,2.2,2.2,98,0.00,,---,0.00,VWS V14.01,2013-10-16 12:16:00,
2013-10-16 07:17:00,47.8,47.3,24.86,SSE,165,2.2,2.2,98,0.00,,---,0.00,VWS V14.01,2013-10-16 12:17:00,
2013-10-16 07:19:00,47.8,47.3,24.86,SSE,165,2.7,2.7,98,0.00,,---,0.00,VWS V14.01,2013-10-16 12:19:00,
2013-10-16 07:21:00,47.8,47.3,24.86,SSE,165,2.7,3.1,98,0.00,,---,0.00,VWS V14.01,2013-10-16 12:21:00,
2013-10-16 07:22:00,47.8,47.3,24.86,SSE,165,2.2,2.7,98,0.00,,---,0.00,VWS V14.01,2013-10-16 12:22:00,
2013-10-16 07:24:00,47.8,47.3,24.86,SSE,165,2.2,2.2,98,0.00,,---,0.00,VWS V14.01,2013-10-16 12:24:00,
2013-10-16 07:25:00,47.8,47.3,24.86,SSE,165,2.2,2.2,98,0.00,,---,0.00,VWS V14.01,2013-10-16 12:25:00,
2013-10-16 07:26:00,47.8,47.3,24.86,SSE,165,2.2,2.2,98,0.00,,---,0.00,VWS V14.01,2013-10-16 12:26:00,
2013-10-16 07:28:00,47.8,47.3,24.86,SSE,165,2.2,2.2,98,0.00,,---,0.00,VWS V14.01,2013-10-16 12:28:00,
2013-10-16 07:29:00,47.8,47.3,24.86,SSE,165,0.0,2.2,98,0.00,,---,0.00,VWS V14.01,2013-10-16 12:29:00,
2013-10-16 07:30:00,47.8,47.3,24.86,SSE,165,0.0,0.0,98,0.00,,---,0.00,VWS V14.01,2013-10-16 12:30:00,
2013-10-16 07:31:00,47.8,47.3,24.86,SSE,165,0.0,0.0,98,0.00,,---,0.00,VWS V14.01,2013-10-16 12:31:00,
2013-10-16 07:33:00,47.8,47.3,24.86,SSE,165,0.0,0.0,98,0.00,,---,0.00,VWS V14.01,2013-10-16 12:33:00,
2013-10-16 07:36:00,47.8,47.3,24.86,SSE,165,0.0,0.0,98,0.00,,---,0.00,VWS V14.01,2013-10-16 12:36:00,
2013-10-16 07:38:00,47.8,47.3,24.86,SSE,165,0.0,0.0,98,0.00,,---,0.00,VWS V14.01,2013-10-16 12:38:00,
2013-10-16 07:41:00,47.8,47.3,24.86,SSE,162,0.0,0.0,98,0.00,,---,0.00,VWS V14.01,2013-10-16 12:41:00,
2013-10-16 07:44:00,47.8,47.3,24.86,SSE,148,3.1,3.1,98,0.00,,---,0.00,VWS V14.01,2013-10-16 12:44:00,
2013-10-16 07:46:00,47.8,47.3,24.86,SSE,148,3.1,3.1,98,0.00,,---,0.00,VWS V14.01,2013-10-16 12:46:00,
2013-10-16 07:47:00,47.8,47.3,24.86,SSE,151,2.7,3.1,98,0.00,,---,0.00,VWS V14.01,2013-10-16 12:47:00,
2013-10-16 07:49:00,47.8,47.3,24.86,SSE,151,2.7,2.7,98,0.00,,---,0.00,VWS V14.01,2013-10-16 12:49:00,
2013-10-16 07:50:00,47.8,47.3,24.86,SSE,151,2.7,2.7,98,0.00,,---,0.00,VWS V14.01,2013-10-16 12:50:00,
2013-10-16 07:51:00,47.8,47.3,24.86,SSE,152,3.1,3.1,98,0.00,,---,0.00,VWS V14.01,2013-10-16 12:51:00,
2013-10-16 07:52:00,47.8,47.3,24.86,SSE,152,3.1,3.1,98,0.00,,---,0.00,VWS V14.01,2013-10-16 12:52:00,
2013-10-16 07:54:00,47.8,47.3,24.86,SSE,152,3.1,3.1,98,0.00,,---,0.00,VWS V14.01,2013-10-16 12:54:00,
2013-10-16 07:55:00,47.8,47.3,24.86,SSE,152,3.1,3.1,98,0.00,,---,0.00,VWS V14.01,2013-10-16 12:55:00,
2013-10-16 07:56:00,47.8,47.3,24.86,SSE,156,3.1,3.1,98,0.00,,---,0.00,VWS V14.01,2013-10-16 12:56:00,
2013-10-16 07:57:00,47.8,47.3,24.86,SSE,156,2.7,3.1,98,0.00,,---,0.00,VWS V14.01,2013-10-16 12:57:00,
2013-10-16 07:59:00,47.8,47.3,24.89,SSE,157,2.2,2.2,98,0.00,,---,0.00,VWS V14.01,2013-10-16 12:59:00,
2013-10-16 08:00:00,47.8,47.3,24.89,SSE,157,2.2,2.2,98,0.00,,---,0.00,VWS V14.01,2013-10-16 13:00:00,
2013-10-16 08:02:00,47.8,47.3,24.89,SSE,157,2.2,2.2,98,0.00,,---,0.00,VWS V14.01,2013-10-16 13:02:00,
2013-10-16 08:04:00,47.8,47.3,24.89,SSE,157,3.6,3.6,98,0.00,,---,0.00,VWS V14.01,2013-10-16 13:04:00,
2013-10-16 08:05:00,47.8,47.3,24.89,SSE,153,3.1,3.1,98,0.00,,---,0.00,VWS V14.01,2013-10-16 13:05:00,
2013-10-16 08:07:00,47.8,47.3,24.89,SSE,155,3.6,3.6,98,0.00,,---,0.00,VWS V14.01,2013-10-16 13:07:00,
2013-10-16 08:09:00,47.8,47.3,24.89,SSE,165,3.1,3.1,98,0.00,,---,0.00,VWS V14.01,2013-10-16 13:09:00,
2013-10-16 08:10:00,47.8,47.3,24.89,SSE,165,3.1,3.1,98,0.00,,---,0.00,VWS V14.01,2013-10-16 13:10:00,
2013-10-16 08:12:00,47.8,47.3,24.89,SSE,154,4.0,4.0,98,0.00,,---,0.00,VWS V14.01,2013-10-16 13:12:00,
2013-10-16 08:13:00,47.8,47.3,24.89,South,169,3.6,4.0,98,0.00,,---,0.00,VWS V14.01,2013-10-16 13:13:00,
2013-10-16 08:14:00,47.8,47.3,24.89,SSE,163,4.0,4.0,98,0.00,,---,0.00,VWS V14.01,2013-10-16 13:14:00,
2013-10-16 08:15:00,47.8,47.3,24.89,SSE,163,4.0,4.0,98,0.00,,---,0.00,VWS V14.01,2013-10-16 13:15:00,
2013-10-16 08:16:00,47.8,47.3,24.89,SSE,163,4.0,4.0,98,0.00,,---,0.00,VWS V14.01,2013-10-16 13:16:00,
2013-10-16 08:17:00,47.8,47.3,24.89,SSE,163,4.0,4.0,98,0.00,,---,0.00,VWS V14.01,2013-10-16 13:17:00,
2013-10-16 08:18:00,47.8,47.3,24.89,SSE,161,3.1,3.1,98,0.00,,---,0.00,VWS V14.01,2013-10-16 13:18:00,
2013-10-16 08:19:00,47.8,47.3,24.89,SSE,154,4.0,4.0,98,0.00,,---,0.00,VWS V14.01,2013-10-16 13:19:00,
2013-10-16 08:21:00,47.8,47.3,24.89,SSE,154,4.0,4.0,98,0.00,,---,0.00,VWS V14.01,2013-10-16 13:21:00,
2013-10-16 08:22:00,47.8,47.3,24.89,SSE,165,5.4,5.4,98,0.00,,---,0.00,VWS V14.01,2013-10-16 13:22:00,
2013-10-16 08:23:00,47.8,47.3,24.89,South,173,3.6,5.4,98,0.00,,---,0.00,VWS V14.01,2013-10-16 13:23:00,
2013-10-16 08:25:00,47.8,47.3,24.89,SSE,161,3.1,3.1,98,0.00,,---,0.00,VWS V14.01,2013-10-16 13:25:00,
2013-10-16 08:26:00,47.8,47.3,24.89,SSE,158,3.1,3.1,98,0.00,,---,0.00,VWS V14.01,2013-10-16 13:26:00,
2013-10-16 08:27:00,47.8,47.3,24.89,SSE,158,3.1,3.1,98,0.00,,---,0.00,VWS V14.01,2013-10-16 13:27:00,
2013-10-16 08:28:00,47.8,47.3,24.89,South,174,3.1,3.1,98,0.00,,---,0.00,VWS V14.01,2013-10-16 13:28:00,
2013-10-16 08:29:00,47.8,47.3,24.89,South,174,3.1,3.1,98,0.00,,---,0.00,VWS V14.01,2013-10-16 13:29:00,
2013-10-16 08:30:00,47.8,47.3,24.89,South,170,3.1,3.1,98,0.00,,---,0.00,VWS V14.01,2013-10-16 13:30:00,
2013-10-16 08:32:00,47.8,47.3,24.89,SSE,160,3.6,3.6,98,0.00,,---,0.00,VWS V14.01,2013-10-16 13:32:00,
2013-10-16 08:33:00,47.8,47.3,24.89,SSE,160,3.6,3.6,98,0.00,,---,0.00,VWS V14.01,2013-10-16 13:33:00,
2013-10-16 08:34:00,47.8,47.3,24.89,SSE,160,3.6,3.6,98,0.00,,---,0.00,VWS V14.01,2013-10-16 13:34:00,
2013-10-16 08:35:00,47.8,47.3,24.89,SSE,158,3.1,3.6,98,0.00,,---,0.00,VWS V14.01,2013-10-16 13:35:00,
2013-10-16 08:37:00,47.8,47.3,24.89,SSE,166,4.0,4.0,98,0.00,,---,0.00,VWS V14.01,2013-10-16 13:37:00,
2013-10-16 08:38:00,47.8,47.3,24.89,SSE,166,4.0,4.0,98,0.00,,---,0.00,VWS V14.01,2013-10-16 13:38:00,
2013-10-16 08:39:00,47.8,47.3,24.89,SSE,154,4.0,4.0,98,0.00,,---,0.00,VWS V14.01,2013-10-16 13:39:00,
2013-10-16 08:40:00,47.8,47.3,24.89,SSE,153,3.6,3.6,98,0.00,,---,0.00,VWS V14.01,2013-10-16 13:40:00,
2013-10-16 08:43:00,47.8,47.3,24.89,SSE,153,3.6,3.6,98,0.00,,---,0.00,VWS V14.01,2013-10-16 13:43:00,
2013-10-16 08:44:00,47.8,47.3,24.89,SSE,153,3.6,3.6,98,0.00,,---,0.00,VWS V14.01,2013-10-16 13:44:00,
2013-10-16 08:45:00,47.8,47.3,24.89,SSE,153,3.6,3.6,98,0.00,,---,0.00,VWS V14.01,2013-10-16 13:45:00,
2013-10-16 08:48:00,47.8,47.3,24.89,SSE,165,3.1,3.1,98,0.00,,---,0.00,VWS V14.01,2013-10-16 13:48:00,
2013-10-16 08:49:00,47.8,47.3,24.89,SSE,149,3.6,3.6,98,0.00,,---,0.00,VWS V14.01,2013-10-16 13:49:00,
2013-10-16 08:50:00,47.8,47.3,24.89,SSE,149,3.6,3.6,98,0.00,,---,0.00,VWS V14.01,2013-10-16 13:50:00,
2013-10-16 08:53:00,47.8,47.3,24.89,SSE,149,3.6,3.6,98,0.00,,---,0.00,VWS V14.01,2013-10-16 13:53:00,
2013-10-16 08:54:00,47.8,47.3,24.89,SSE,166,3.1,3.6,98,0.00,,---,0.00,VWS V14.01,2013-10-16 13:54:00,
2013-10-16 08:55:00,47.8,47.3,24.89,SSE,166,3.1,3.1,98,0.00,,---,0.00,VWS V14.01,2013-10-16 13:55:00,
2013-10-16 08:56:00,47.8,47.3,24.89,SSE,155,3.1,3.1,98,0.00,,---,0.00,VWS V14.01,2013-10-16 13:56:00,
2013-10-16 08:57:00,47.8,47.3,24.89,South,174,2.7,2.7,98,0.00,,---,0.00,VWS V14.01,2013-10-16 13:57:00,
2013-10-16 08:58:00,47.8,47.3,24.89,South,174,3.1,3.1,98,0.00,,---,0.00,VWS V14.01,2013-10-16 13:58:00,
2013-10-16 08:59:00,47.8,47.3,24.89,South,174,3.1,3.1,98,0.00,,---,0.00,VWS V14.01,2013-10-16 13:59:00,
2013-10-16 09:00:00,47.8,47.3,24.89,South,178,3.1,3.1,98,0.00,,---,0.00,VWS V14.01,2013-10-16 14:00:00,
2013-10-16 09:01:00,47.8,47.3,24.89,South,178,3.1,3.1,98,0.00,,---,0.00,VWS V14.01,2013-10-16 14:01:00,
2013-10-16 09:02:00,47.8,47.3,24.89,SSE,160,4.0,4.0,98,0.00,,---,0.00,VWS V14.01,2013-10-16 14:02:00,
2013-10-16 09:03:00,47.8,47.3,24.89,SSE,160,4.0,4.0,98,0.00,,---,0.00,VWS V14.01,2013-10-16 14:03:00,
2013-10-16 09:04:00,47.8,47.3,24.89,SSE,160,4.0,4.0,98,0.00,,---,0.00,VWS V14.01,2013-10-16 14:04:00,
2013-10-16 09:05:00,47.8,47.3,24.89,SSE,152,2.7,2.7,98,0.00,,---,0.00,VWS V14.01,2013-10-16 14:05:00,
2013-10-16 09:07:00,47.8,47.3,24.89,SSE,159,4.0,4.0,98,0.00,,---,0.00,VWS V14.01,2013-10-16 14:07:00,
2013-10-16 09:08:00,47.8,47.3,24.89,SSE,164,3.6,4.0,98,0.00,,---,0.00,VWS V14.01,2013-10-16 14:08:00,
2013-10-16 09:09:00,47.8,47.3,24.89,SSE,164,3.6,3.6,98,0.00,,---,0.00,VWS V14.01,2013-10-16 14:09:00,
2013-10-16 09:10:00,47.8,47.3,24.89,SSE,164,3.6,3.6,98,0.00,,---,0.00,VWS V14.01,2013-10-16 14:10:00,
2013-10-16 09:11:00,47.8,47.3,24.89,SSE,164,3.6,3.6,98,0.00,,---,0.00,VWS V14.01,2013-10-16 14:11:00,
2013-10-16 09:13:00,47.8,47.3,24.89,SSE,164,3.6,3.6,98,0.00,,---,0.00,VWS V14.01,2013-10-16 14:13:00,
2013-10-16 09:14:00,47.8,47.3,24.89,South,173,3.6,3.6,98,0.00,,---,0.00,VWS V14.01,2013-10-16 14:14:00,
2013-10-16 09:15:00,47.8,47.3,24.89,SSE,157,3.6,3.6,98,0.00,,---,0.00,VWS V14.01,2013-10-16 14:15:00,
2013-10-16 09:16:00,47.8,47.3,24.89,SSE,157,3.6,3.6,98,0.00,,---,0.00,VWS V14.01,2013-10-16 14:16:00,
2013-10-16 09:18:00,47.8,47.3,24.89,SSE,157,3.6,3.6,98,0.00,,---,0.00,VWS V14.01,2013-10-16 14:18:00,
2013-10-16 09:19:00,47.8,47.3,24.89,SSE,157,3.6,3.6,98,0.00,,---,0.00,VWS V14.01,2013-10-16 14:19:00,
2013-10-16 09:21:00,47.8,47.3,24.89,SSE,166,4.9,4.9,98,0.00,,---,0.00,VWS V14.01,2013-10-16 14:21:00,
2013-10-16 09:22:00,47.8,47.3,24.89,SSE,167,4.5,4.9,98,0.00,,---,0.00,VWS V14.01,2013-10-16 14:22:00,
2013-10-16 09:23:00,47.8,47.3,24.89,SSE,167,4.5,4.5,98,0.00,,---,0.00,VWS V14.01,2013-10-16 14:23:00,
2013-10-16 09:24:00,47.8,47.3,24.89,SSE,159,4.0,4.0,98,0.00,,---,0.00,VWS V14.01,2013-10-16 14:24:00,
2013-10-16 09:26:00,47.8,47.3,24.89,South,170,3.6,3.6,98,0.00,,---,0.00,VWS V14.01,2013-10-16 14:26:00,
2013-10-16 09:27:00,47.8,47.3,24.89,South,170,3.6,3.6,98,0.00,,---,0.00,VWS V14.01,2013-10-16 14:27:00,
2013-10-16 09:28:00,47.8,47.3,24.89,South,170,3.6,3.6,98,0.00,,---,0.00,VWS V14.01,2013-10-16 14:28:00,
2013-10-16 09:29:00,47.8,47.3,24.89,SSE,157,5.4,5.4,98,0.00,,---,0.00,VWS V14.01,2013-10-16 14:29:00,
2013-10-16 09:31:00,47.8,47.3,24.89,South,180,2.7,2.7,98,0.00,,---,0.00,VWS V14.01,2013-10-16 14:31:00,
2013-10-16 09:32:00,47.8,47.3,24.89,SSE,149,4.0,4.0,98,0.00,,---,0.00,VWS V14.01,2013-10-16 14:32:00,
2013-10-16 09:33:00,47.8,47.3,24.89,SSE,158,3.6,3.6,98,0.00,,---,0.00,VWS V14.01,2013-10-16 14:33:00,
2013-10-16 09:34:00,47.8,47.3,24.92,SSE,158,3.6,3.6,98,0.00,,---,0.00,VWS V14.01,2013-10-16 14:34:00,
2013-10-16 09:36:00,47.8,47.3,24.92,South,178,4.0,4.0,98,0.00,,---,0.00,VWS V14.01,2013-10-16 14:36:00,
2013-10-16 09:37:00,48.0,47.5,24.92,South,178,4.0,4.0,98,0.00,,---,0.00,VWS V14.01,2013-10-16 14:37:00,
2013-10-16 09:38:00,48.0,47.5,24.92,South,178,4.0,4.0,98,0.00,,---,0.00,VWS V14.01,2013-10-16 14:38:00,
2013-10-16 09:40:00,48.0,47.5,24.92,SSE,155,4.0,4.0,98,0.00,,---,0.00,VWS V14.01,2013-10-16 14:40:00,
2013-10-16 09:41:00,48.0,47.5,24.92,SSE,150,3.1,3.1,98,0.00,,---,0.00,VWS V14.01,2013-10-16 14:41:00,
2013-10-16 09:42:00,48.0,47.5,24.92,SSE,150,3.1,3.1,98,0.00,,---,0.00,VWS V14.01,2013-10-16 14:42:00,
2013-10-16 09:43:00,48.0,47.5,24.92,South,176,4.9,4.9,98,0.00,,---,0.00,VWS V14.01,2013-10-16 14:43:00,
2013-10-16 09:45:00,48.0,47.5,24.92,SSE,160,4.0,4.0,98,0.00,,---,0.00,VWS V14.01,2013-10-16 14:45:00,
2013-10-16 09:46:00,48.4,47.8,24.92,SSE,160,4.0,4.0,98,0.00,,---,0.00,VWS V14.01,2013-10-16 14:46:00,
2013-10-16 09:47:00,48.4,47.8,24.92,SSE,160,4.0,4.0,98,0.00,,---,0.00,VWS V14.01,2013-10-16 14:47:00,
2013-10-16 09:48:00,48.4,47.8,24.92,SSE,161,4.0,4.0,98,0.00,,---,0.00,VWS V14.01,2013-10-16 14:48:00,
2013-10-16 09:50:00,48.4,47.8,24.92,South,171,2.7,2.7,98,0.00,,---,0.00,VWS V14.01,2013-10-16 14:50:00,
2013-10-16 09:51:00,48.4,47.8,24.92,South,171,2.7,2.7,98,0.00,,---,0.00,VWS V14.01,2013-10-16 14:51:00,
2013-10-16 09:52:00,48.4,47.8,24.92,South,172,3.6,3.6,98,0.00,,---,0.00,VWS V14.01,2013-10-16 14:52:00,
2013-10-16 09:53:00,48.4,47.8,24.92,South,172,3.6,3.6,98,0.00,,---,0.00,VWS V14.01,2013-10-16 14:53:00,
2013-10-16 09:54:00,48.4,47.8,24.92,SSE,166,4.0,4.0,98,0.00,,---,0.00,VWS V14.01,2013-10-16 14:54:00,
2013-10-16 09:55:00,48.4,47.8,24.92,South,183,4.0,4.0,98,0.00,,---,0.00,VWS V14.01,2013-10-16 14:55:00,
2013-10-16 09:57:00,48.4,47.8,24.92,SSE,158,3.6,4.0,98,0.00,,---,0.00,VWS V14.01,2013-10-16 14:57:00,
2013-10-16 09:58:00,48.4,47.8,24.92,SSE,151,3.1,3.6,98,0.00,,---,0.00,VWS V14.01,2013-10-16 14:58:00,
2013-10-16 09:59:00,48.4,47.8,24.92,SSE,151,3.1,3.6,98,0.00,,---,0.00,VWS V14.01,2013-10-16 14:59:00,
2013-10-16 10:00:00,48.2,47.7,24.92,SSE,151,3.1,3.1,98,0.00,,---,0.00,VWS V14.01,2013-10-16 15:00:00,
2013-10-16 10:02:00,48.2,47.7,24.92,South,173,3.1,3.1,98,0.00,,---,0.00,VWS V14.01,2013-10-16 15:02:00,
2013-10-16 10:03:00,48.2,47.7,24.92,South,173,3.1,3.1,98,0.00,,---,0.00,VWS V14.01,2013-10-16 15:03:00,
2013-10-16 10:04:00,48.2,47.7,24.92,SSE,149,3.1,3.1,98,0.00,,---,0.00,VWS V14.01,2013-10-16 15:04:00,
2013-10-16 10:05:00,48.2,47.7,24.92,SSE,149,0.0,3.1,98,0.00,,---,0.00,VWS V14.01,2013-10-16 15:05:00,
2013-10-16 10:06:00,48.2,47.7,24.92,SSE,168,3.1,3.1,98,0.00,,---,0.00,VWS V14.01,2013-10-16 15:06:00,
2013-10-16 10:07:00,48.2,47.7,24.92,SSE,168,3.6,3.6,98,0.00,,---,0.00,VWS V14.01,2013-10-16 15:07:00,
2013-10-16 10:08:00,48.2,47.7,24.92,SSE,168,3.6,3.6,98,0.00,,---,0.00,VWS V14.01,2013-10-16 15:08:00,
2013-10-16 10:09:00,48.2,47.7,24.92,SSE,168,3.6,3.6,98,0.00,,---,0.00,VWS V14.01,2013-10-16 15:09:00,
2013-10-16 10:11:00,48.2,47.7,24.92,SSE,168,3.6,3.6,98,0.00,,---,0.00,VWS V14.01,2013-10-16 15:11:00,
2013-10-16 10:13:00,48.2,47.7,24.92,SSE,160,2.7,2.7,98,0.00,,---,0.00,VWS V14.01,2013-10-16 15:13:00,
2013-10-16 10:14:00,48.2,47.7,24.92,SSE,158,2.7,2.7,98,0.00,,---,0.00,VWS V14.01,2013-10-16 15:14:00,
2013-10-16 10:15:00,48.2,47.7,24.92,SSE,158,2.7,2.7,98,0.00,,---,0.00,VWS V14.01,2013-10-16 15:15:00,
2013-10-16 10:16:00,48.9,48.4,24.92,South,172,0.0,2.7,98,0.00,,---,0.00,VWS V14.01,2013-10-16 15:16:00,
2013-10-16 10:18:00,48.9,48.4,24.92,South,173,2.7,2.7,98,0.00,,---,0.00,VWS V14.01,2013-10-16 15:18:00,
2013-10-16 10:20:00,48.9,48.4,24.92,South,173,2.7,2.7,98,0.00,,---,0.00,VWS V14.01,2013-10-16 15:20:00,
2013-10-16 10:21:00,48.9,48.4,24.92,South,173,2.7,2.7,98,0.00,,---,0.00,VWS V14.01,2013-10-16 15:21:00,
2013-10-16 10:23:00,48.9,48.4,24.92,South,173,0.0,0.0,98,0.00,,---,0.00,VWS V14.01,2013-10-16 15:23:00,
2013-10-16 10:25:00,48.9,48.4,24.92,South,185,0.0,0.0,98,0.00,,---,0.00,VWS V14.01,2013-10-16 15:25:00,
2013-10-16 10:26:00,48.9,48.4,24.92,South,185,0.0,0.0,98,0.00,,---,0.00,VWS V14.01,2013-10-16 15:26:00,
2013-10-16 10:28:00,49.3,48.7,24.92,South,183,0.0,0.0,98,0.00,,---,0.00,VWS V14.01,2013-10-16 15:28:00,
2013-10-16 10:30:00,49.3,48.7,24.92,South,183,0.0,0.0,98,0.00,,---,0.00,VWS V14.01,2013-10-16 15:30:00,
2013-10-16 10:31:00,49.3,48.7,24.92,SSE,163,0.0,0.0,98,0.00,,---,0.00,VWS V14.01,2013-10-16 15:31:00,
2013-10-16 10:32:00,49.3,48.7,24.92,SSE,164,0.0,0.0,98,0.00,,---,0.00,VWS V14.01,2013-10-16 15:32:00,
2013-10-16 10:33:00,49.3,48.7,24.92,SSE,164,0.0,0.0,98,0.00,,---,0.00,VWS V14.01,2013-10-16 15:33:00,
2013-10-16 10:34:00,49.6,49.1,24.92,SSE,164,0.0,0.0,98,0.00,,---,0.00,VWS V14.01,2013-10-16 15:34:00,
2013-10-16 10:35:00,49.6,49.1,24.92,SSE,164,0.0,0.0,98,0.00,,---,0.00,VWS V14.01,2013-10-16 15:35:00,
2013-10-16 10:36:00,49.8,49.3,24.92,SSE,164,0.0,0.0,98,0.00,,---,0.00,VWS V14.01,2013-10-16 15:36:00,
2013-10-16 10:37:00,50.0,49.5,24.92,SSE,164,0.0,0.0,98,0.00,,---,0.00,VWS V14.01,2013-10-16 15:37:00,
2013-10-16 10:38:00,50.0,49.5,24.92,SSE,164,0.0,0.0,98,0.00,,---,0.00,VWS V14.01,2013-10-16 15:38:00,
2013-10-16 10:40:00,50.0,49.5,24.92,SSE,164,0.0,0.0,98,0.00,,---,0.00,VWS V14.01,2013-10-16 15:40:00,
2013-10-16 10:41:00,50.2,49.6,24.92,SSE,164,0.0,0.0,98,0.00,,---,0.00,VWS V14.01,2013-10-16 15:41:00,
2013-10-16 10:42:00,50.2,49.6,24.92,SSE,164,0.0,0.0,98,0.00,,---,0.00,VWS V14.01,2013-10-16 15:42:00,
2013-10-16 10:43:00,50.4,49.8,24.92,SSE,164,0.0,0.0,98,0.00,,---,0.00,VWS V14.01,2013-10-16 15:43:00,
2013-10-16 10:45:00,50.4,49.8,24.92,SSE,164,0.0,0.0,98,0.00,,---,0.00,VWS V14.01,2013-10-16 15:45:00,
2013-10-16 10:46:00,50.4,49.8,24.92,SSE,164,0.0,0.0,98,0.00,,---,0.00,VWS V14.01,2013-10-16 15:46:00,
2013-10-16 10:47:00,50.4,49.8,24.92,SSE,164,0.0,0.0,98,0.00,,---,0.00,VWS V14.01,2013-10-16 15:47:00,
2013-10-16 10:49:00,50.4,49.8,24.92,SSE,164,0.0,0.0,98,0.00,,---,0.00,VWS V14.01,2013-10-16 15:49:00,
2013-10-16 10:50:00,50.5,50.0,24.92,SSE,164,0.0,0.0,98,0.00,,---,0.00,VWS V14.01,2013-10-16 15:50:00,
2013-10-16 10:51:00,50.5,50.0,24.92,SSE,164,0.0,0.0,98,0.00,,---,0.00,VWS V14.01,2013-10-16 15:51:00,
2013-10-16 10:52:00,50.7,50.2,24.92,SSE,164,0.0,0.0,98,0.00,,---,0.00,VWS V14.01,2013-10-16 15:52:00,
2013-10-16 10:53:00,50.7,50.2,24.92,SSE,164,0.0,0.0,98,0.00,,---,0.00,VWS V14.01,2013-10-16 15:53:00,
2013-10-16 10:56:00,50.7,50.2,24.92,SSE,164,0.0,0.0,98,0.00,,---,0.00,VWS V14.01,2013-10-16 15:56:00,
2013-10-16 10:57:00,50.7,50.2,24.92,SSE,164,0.0,0.0,98,0.00,,---,0.00,VWS V14.01,2013-10-16 15:57:00,
2013-10-16 10:58:00,50.7,50.2,24.92,SSE,164,0.0,0.0,98,0.00,,---,0.00,VWS V14.01,2013-10-16 15:58:00,
2013-10-16 11:01:00,50.7,50.2,24.92,SSE,164,0.0,0.0,98,0.00,,---,0.00,VWS V14.01,2013-10-16 16:01:00,
2013-10-16 11:02:00,50.7,50.2,24.92,SSE,164,0.0,0.0,98,0.00,,---,0.00,VWS V14.01,2013-10-16 16:02:00,
2013-10-16 11:03:00,50.7,50.2,24.92,SSE,164,0.0,0.0,98,0.00,,---,0.00,VWS V14.01,2013-10-16 16:03:00,
2013-10-16 11:04:00,50.7,50.2,24.92,SSE,164,0.0,0.0,98,0.00,,---,0.00,VWS V14.01,2013-10-16 16:04:00,
2013-10-16 11:06:00,51.8,51.3,24.92,SSE,164,0.0,0.0,98,0.00,,---,0.00,VWS V14.01,2013-10-16 16:06:00,
2013-10-16 11:07:00,51.8,51.3,24.92,SSE,164,0.0,0.0,98,0.00,,---,0.00,VWS V14.01,2013-10-16 16:07:00,
2013-10-16 11:08:00,51.8,51.3,24.92,SSE,164,0.0,0.0,98,0.00,,---,0.00,VWS V14.01,2013-10-16 16:08:00,
2013-10-16 11:09:00,51.8,51.3,24.92,SSE,164,0.0,0.0,98,0.00,,---,0.00,VWS V14.01,2013-10-16 16:09:00,
2013-10-16 11:11:00,51.8,51.3,24.92,SSE,164,0.0,0.0,98,0.00,,---,0.00,VWS V14.01,2013-10-16 16:11:00,
2013-10-16 11:12:00,51.8,51.3,24.92,SSE,164,0.0,0.0,98,0.00,,---,0.00,VWS V14.01,2013-10-16 16:12:00,
2013-10-16 11:13:00,51.8,51.3,24.92,SSE,164,0.0,0.0,98,0.00,,---,0.00,VWS V14.01,2013-10-16 16:13:00,
2013-10-16 11:14:00,51.8,51.3,24.92,SSE,164,0.0,0.0,98,0.00,,---,0.00,VWS V14.01,2013-10-16 16:14:00,
2013-10-16 11:16:00,51.8,51.3,24.92,SSE,164,0.0,0.0,98,0.00,,---,0.00,VWS V14.01,2013-10-16 16:16:00,
2013-10-16 11:17:00,51.8,51.3,24.92,SSE,164,0.0,0.0,98,0.00,,---,0.00,VWS V14.01,2013-10-16 16:17:00,
2013-10-16 11:18:00,51.8,51.3,24.92,SSE,164,0.0,0.0,98,0.00,,---,0.00,VWS V14.01,2013-10-16 16:18:00,
2013-10-16 11:19:00,51.8,51.3,24.92,SSE,164,0.0,0.0,98,0.00,,---,0.00,VWS V14.01,2013-10-16 16:19:00,
2013-10-16 11:21:00,51.8,51.3,24.92,SSE,164,0.0,0.0,98,0.00,,---,0.00,VWS V14.01,2013-10-16 16:21:00,
2013-10-16 11:22:00,51.8,51.3,24.92,SSE,164,0.0,0.0,98,0.00,,---,0.00,VWS V14.01,2013-10-16 16:22:00,
2013-10-16 11:23:00,51.8,51.3,24.92,SSE,164,0.0,0.0,98,0.00,,---,0.00,VWS V14.01,2013-10-16 16:23:00,
2013-10-16 11:24:00,51.8,51.3,24.92,SSE,164,0.0,0.0,98,0.00,,---,0.00,VWS V14.01,2013-10-16 16:24:00,
2013-10-16 11:26:00,52.3,51.5,24.92,SSE,164,0.0,0.0,97,0.00,,---,0.00,VWS V14.01,2013-10-16 16:26:00,
2013-10-16 11:27:00,52.3,51.5,24.92,SSE,164,0.0,0.0,97,0.00,,---,0.00,VWS V14.01,2013-10-16 16:27:00,
2013-10-16 11:29:00,52.3,51.5,24.92,SSE,164,0.0,0.0,97,0.00,,---,0.00,VWS V14.01,2013-10-16 16:29:00,
2013-10-16 11:30:00,52.3,51.5,24.92,SSE,164,0.0,0.0,97,0.00,,---,0.00,VWS V14.01,2013-10-16 16:30:00,
2013-10-16 11:31:00,52.3,51.5,24.92,SSE,164,0.0,0.0,97,0.00,,---,0.00,VWS V14.01,2013-10-16 16:31:00,
2013-10-16 11:33:00,52.3,51.5,24.92,SSE,164,0.0,0.0,97,0.00,,---,0.00,VWS V14.01,2013-10-16 16:33:00,
2013-10-16 11:34:00,52.0,51.2,24.92,SSE,164,0.0,0.0,97,0.00,,---,0.00,VWS V14.01,2013-10-16 16:34:00,
2013-10-16 11:35:00,52.0,51.2,24.92,SSE,164,0.0,0.0,97,0.00,,---,0.00,VWS V14.01,2013-10-16 16:35:00,
2013-10-16 11:36:00,51.8,51.0,24.92,SSE,164,0.0,0.0,97,0.00,,---,0.00,VWS V14.01,2013-10-16 16:36:00,
2013-10-16 11:38:00,51.8,51.0,24.92,SSE,164,0.0,0.0,97,0.00,,---,0.00,VWS V14.01,2013-10-16 16:38:00,
2013-10-16 11:40:00,51.8,51.0,24.92,SSE,164,0.0,0.0,97,0.00,,---,0.00,VWS V14.01,2013-10-16 16:40:00,
2013-10-16 11:41:00,52.0,51.2,24.92,SSE,164,0.0,0.0,97,0.00,,---,0.00,VWS V14.01,2013-10-16 16:41:00,
2013-10-16 11:42:00,52.0,51.2,24.92,SSE,164,0.0,0.0,97,0.00,,---,0.00,VWS V14.01,2013-10-16 16:42:00,
2013-10-16 11:43:00,52.2,51.3,24.92,SSE,164,0.0,0.0,97,0.00,,---,0.00,VWS V14.01,2013-10-16 16:43:00,
2013-10-16 11:45:00,52.2,51.3,24.92,SSE,164,0.0,0.0,97,0.00,,---,0.00,VWS V14.01,2013-10-16 16:45:00,
2013-10-16 11:46:00,52.2,51.3,24.92,SSE,164,0.0,0.0,97,0.00,,---,0.00,VWS V14.01,2013-10-16 16:46:00,
2013-10-16 11:47:00,52.2,51.3,24.92,SSE,164,0.0,0.0,97,0.00,,---,0.00,VWS V14.01,2013-10-16 16:47:00,
2013-10-16 11:48:00,52.2,51.3,24.92,SSE,164,0.0,0.0,97,0.00,,---,0.00,VWS V14.01,2013-10-16 16:48:00,
2013-10-16 11:51:00,52.5,51.4,24.92,SSE,164,0.0,0.0,96,0.00,,---,0.00,VWS V14.01,2013-10-16 16:51:00,
2013-10-16 11:52:00,52.5,51.4,24.92,SSE,164,0.0,0.0,96,0.00,,---,0.00,VWS V14.01,2013-10-16 16:52:00,
2013-10-16 11:53:00,52.5,51.4,24.92,SSE,164,0.0,0.0,96,0.00,,---,0.00,VWS V14.01,2013-10-16 16:53:00,
2013-10-16 11:56:00,52.5,51.4,24.92,SSE,164,0.0,0.0,96,0.00,,---,0.00,VWS V14.01,2013-10-16 16:56:00,
2013-10-16 11:57:00,53.1,52.0,24.92,SSE,164,0.0,0.0,96,0.00,,---,0.00,VWS V14.01,2013-10-16 16:57:00,
2013-10-16 11:58:00,53.1,52.0,24.92,SSE,164,0.0,0.0,96,0.00,,---,0.00,VWS V14.01,2013-10-16 16:58:00,
2013-10-16 12:01:00,52.9,51.5,24.92,SSE,164,0.0,0.0,95,0.00,,---,0.00,VWS V14.01,2013-10-16 17:01:00,
2013-10-16 12:02:00,52.9,51.5,24.92,SSE,164,0.0,0.0,95,0.00,,---,0.00,VWS V14.01,2013-10-16 17:02:00,
2013-10-16 12:03:00,52.9,51.5,24.92,SSE,164,0.0,0.0,95,0.00,,---,0.00,VWS V14.01,2013-10-16 17:03:00,
2013-10-16 12:06:00,52.9,51.5,24.92,SSE,164,0.0,0.0,95,0.00,,---,0.00,VWS V14.01,2013-10-16 17:06:00,
2013-10-16 12:08:00,52.9,51.5,24.92,SSE,164,0.0,0.0,95,0.00,,---,0.00,VWS V14.01,2013-10-16 17:08:00,
2013-10-16 12:11:00,55.0,53.3,24.92,SSE,164,0.0,0.0,94,0.00,,---,0.00,VWS V14.01,2013-10-16 17:11:00,
2013-10-16 12:12:00,55.0,53.3,24.92,SSE,164,0.0,0.0,94,0.00,,---,0.00,VWS V14.01,2013-10-16 17:12:00,
2013-10-16 12:13:00,55.0,53.3,24.92,SSE,164,0.0,0.0,94,0.00,,---,0.00,VWS V14.01,2013-10-16 17:13:00,
2013-10-16 12:14:00,55.0,53.3,24.92,SSE,164,0.0,0.0,94,0.00,,---,0.00,VWS V14.01,2013-10-16 17:14:00,
2013-10-16 12:17:00,57.0,55.0,24.92,SSE,164,0.0,0.0,93,0.00,,---,0.00,VWS V14.01,2013-10-16 17:17:00,
2013-10-16 12:18:00,57.0,55.0,24.92,SSE,164,0.0,0.0,93,0.00,,---,0.00,VWS V14.01,2013-10-16 17:18:00,
2013-10-16 12:19:00,57.0,55.0,24.92,SSE,164,0.0,0.0,93,0.00,,---,0.00,VWS V14.01,2013-10-16 17:19:00,
2013-10-16 12:23:00,57.2,54.0,24.92,SSE,164,0.0,0.0,89,0.00,,---,0.00,VWS V14.01,2013-10-16 17:23:00,
2013-10-16 12:24:00,57.4,52.6,24.92,SSE,164,0.0,0.0,84,0.00,,---,0.00,VWS V14.01,2013-10-16 17:24:00,
2013-10-16 12:28:00,57.9,52.1,24.92,SSE,164,0.0,0.0,81,0.00,,---,0.00,VWS V14.01,2013-10-16 17:28:00,
2013-10-16 12:29:00,57.9,52.1,24.92,SSE,164,0.0,0.0,81,0.00,,---,0.00,VWS V14.01,2013-10-16 17:29:00,
2013-10-16 12:33:00,56.8,46.8,24.92,SSE,164,0.0,0.0,69,0.00,,---,0.00,VWS V14.01,2013-10-16 17:33:00,
2013-10-16 12:34:00,56.8,46.8,24.92,SSE,164,0.0,0.0,69,0.00,,---,0.00,VWS V14.01,2013-10-16 17:34:00,
2013-10-16 12:39:00,56.8,46.8,24.92,SSE,164,0.0,0.0,69,0.00,,---,0.00,VWS V14.01,2013-10-16 17:39:00,
2013-10-16 12:40:00,56.7,45.8,24.92,SSE,164,0.0,0.0,67,0.00,,---,0.00,VWS V14.01,2013-10-16 17:40:00,
2013-10-16 12:44:00,56.7,45.8,24.92,SSE,164,0.0,0.0,67,0.00,,---,0.00,VWS V14.01,2013-10-16 17:44:00,
2013-10-16 12:45:00,56.7,45.8,24.92,SSE,164,0.0,0.0,67,0.00,,---,0.00,VWS V14.01,2013-10-16 17:45:00,
2013-10-16 12:49:00,56.5,45.3,24.92,SSE,164,0.0,0.0,66,0.00,,---,0.00,VWS V14.01,2013-10-16 17:49:00,
2013-10-16 12:50:00,56.5,45.3,24.92,SSE,164,0.0,0.0,66,0.00,,---,0.00,VWS V14.01,2013-10-16 17:50:00,
2013-10-16 12:54:00,56.5,45.3,24.92,SSE,164,0.0,0.0,66,0.00,,---,0.00,VWS V14.01,2013-10-16 17:54:00,
2013-10-16 12:55:00,56.5,45.3,24.92,SSE,164,0.0,0.0,66,0.00,,---,0.00,VWS V14.01,2013-10-16 17:55:00,
2013-10-16 12:56:00,56.5,45.3,24.92,SSE,164,0.0,0.0,66,0.00,,---,0.00,VWS V14.01,2013-10-16 17:56:00,
2013-10-16 12:57:00,58.1,48.8,24.92,SSE,164,0.0,0.0,71,0.00,,---,0.00,VWS V14.01,2013-10-16 17:57:00,
2013-10-16 12:59:00,58.1,48.8,24.92,SSE,164,0.0,0.0,71,0.00,,---,0.00,VWS V14.01,2013-10-16 17:59:00,
2013-10-16 13:00:00,58.3,46.2,24.92,SSE,164,0.0,0.0,64,0.00,,---,0.00,VWS V14.01,2013-10-16 18:00:00,
2013-10-16 13:01:00,58.3,46.2,24.92,SSE,164,0.0,0.0,64,0.00,,---,0.00,VWS V14.01,2013-10-16 18:01:00,
2013-10-16 13:03:00,58.3,46.2,24.92,SSE,164,0.0,0.0,64,0.00,,---,0.00,VWS V14.01,2013-10-16 18:03:00,
2013-10-16 13:04:00,58.5,46.8,24.92,SSE,164,0.0,0.0,65,0.00,,---,0.00,VWS V14.01,2013-10-16 18:04:00,
2013-10-16 13:05:00,58.5,46.8,24.92,SSE,164,0.0,0.0,65,0.00,,---,0.00,VWS V14.01,2013-10-16 18:05:00,
2013-10-16 13:06:00,58.3,45.8,24.92,SSE,164,0.0,0.0,63,0.00,,---,0.00,VWS V14.01,2013-10-16 18:06:00,
2013-10-16 13:08:00,58.3,45.3,24.92,SSE,164,0.0,0.0,62,0.00,,---,0.00,VWS V14.01,2013-10-16 18:08:00,
2013-10-16 13:09:00,58.3,44.5,24.92,SSE,164,0.0,0.0,60,0.00,,---,0.00,VWS V14.01,2013-10-16 18:09:00,
2013-10-16 13:10:00,58.3,44.5,24.92,SSE,164,0.0,0.0,60,0.00,,---,0.00,VWS V14.01,2013-10-16 18:10:00,
2013-10-16 13:11:00,58.3,44.5,24.92,SSE,164,0.0,0.0,60,0.00,,---,0.00,VWS V14.01,2013-10-16 18:11:00,
2013-10-16 13:12:00,58.1,43.9,24.92,SSE,164,0.0,0.0,59,0.00,,---,0.00,VWS V14.01,2013-10-16 18:12:00,
2013-10-16 13:13:00,58.1,44.3,24.92,SSE,164,0.0,0.0,60,0.00,,---,0.00,VWS V14.01,2013-10-16 18:13:00,
2013-10-16 13:14:00,58.1,44.3,24.92,SSE,164,0.0,0.0,60,0.00,,---,0.00,VWS V14.01,2013-10-16 18:14:00,
2013-10-16 13:15:00,58.1,44.3,24.92,SSE,164,0.0,0.0,60,0.00,,---,0.00,VWS V14.01,2013-10-16 18:15:00,
2013-10-16 13:17:00,58.1,44.3,24.92,SSE,164,0.0,0.0,60,0.00,,---,0.00,VWS V14.01,2013-10-16 18:17:00,
2013-10-16 13:18:00,58.1,44.3,24.92,SSE,164,0.0,0.0,60,0.00,,---,0.00,VWS V14.01,2013-10-16 18:18:00,
2013-10-16 13:20:00,58.1,44.3,24.92,SSE,164,0.0,0.0,60,0.00,,---,0.00,VWS V14.01,2013-10-16 18:20:00,
2013-10-16 13:22:00,58.1,44.3,24.92,SSE,164,0.0,0.0,60,0.00,,---,0.00,VWS V14.01,2013-10-16 18:22:00,
2013-10-16 13:24:00,58.1,44.3,24.92,SSE,164,0.0,0.0,60,0.00,,---,0.00,VWS V14.01,2013-10-16 18:24:00,
2013-10-16 13:25:00,58.1,44.3,24.92,SSE,164,0.0,0.0,60,0.00,,---,0.00,VWS V14.01,2013-10-16 18:25:00,
2013-10-16 13:27:00,58.1,44.3,24.92,SSE,164,0.0,0.0,60,0.00,,---,0.00,VWS V14.01,2013-10-16 18:27:00,
2013-10-16 13:29:00,58.5,42.8,24.92,SSE,164,0.0,0.0,56,0.00,,---,0.00,VWS V14.01,2013-10-16 18:29:00,
2013-10-16 13:30:00,58.5,42.8,24.92,SSE,164,0.0,0.0,56,0.00,,---,0.00,VWS V14.01,2013-10-16 18:30:00,
2013-10-16 13:33:00,58.5,42.8,24.92,SSE,164,0.0,0.0,56,0.00,,---,0.00,VWS V14.01,2013-10-16 18:33:00,
2013-10-16 13:35:00,58.8,44.1,24.92,SSE,164,0.0,0.0,58,0.00,,---,0.00,VWS V14.01,2013-10-16 18:35:00,
2013-10-16 13:36:00,58.8,44.1,24.92,SSE,164,0.0,0.0,58,0.00,,---,0.00,VWS V14.01,2013-10-16 18:36:00,
2013-10-16 13:38:00,59.2,43.0,24.92,SSE,164,0.0,0.0,55,0.00,,---,0.00,VWS V14.01,2013-10-16 18:38:00,
2013-10-16 13:39:00,59.2,43.0,24.92,SSE,164,0.0,0.0,55,0.00,,---,0.00,VWS V14.01,2013-10-16 18:39:00,
2013-10-16 13:40:00,59.2,43.0,24.92,SSE,164,0.0,0.0,55,0.00,,---,0.00,VWS V14.01,2013-10-16 18:40:00,
2013-10-16 13:41:00,59.2,43.0,24.92,SSE,164,0.0,0.0,55,0.00,,---,0.00,VWS V14.01,2013-10-16 18:41:00,
2013-10-16 13:43:00,59.5,43.4,24.92,SSE,164,0.0,0.0,55,0.00,,---,0.00,VWS V14.01,2013-10-16 18:43:00,
2013-10-16 13:44:00,59.5,43.4,24.92,SSE,164,0.0,0.0,55,0.00,,---,0.00,VWS V14.01,2013-10-16 18:44:00,
2013-10-16 13:45:00,59.5,43.4,24.92,SSE,164,0.0,0.0,55,0.00,,---,0.00,VWS V14.01,2013-10-16 18:45:00,
2013-10-16 13:46:00,59.5,43.4,24.92,SSE,164,0.0,0.0,55,0.00,,---,0.00,VWS V14.01,2013-10-16 18:46:00,
2013-10-16 13:48:00,59.5,43.4,24.92,SSE,164,0.0,0.0,55,0.00,,---,0.00,VWS V14.01,2013-10-16 18:48:00,
2013-10-16 13:49:00,59.5,43.4,24.92,SSE,164,0.0,0.0,55,0.00,,---,0.00,VWS V14.01,2013-10-16 18:49:00,
2013-10-16 13:50:00,59.5,43.4,24.92,SSE,164,0.0,0.0,55,0.00,,---,0.00,VWS V14.01,2013-10-16 18:50:00,
2013-10-16 13:51:00,59.5,43.4,24.92,SSE,164,0.0,0.0,55,0.00,,---,0.00,VWS V14.01,2013-10-16 18:51:00,
2013-10-16 13:53:00,59.5,43.4,24.92,SSE,164,0.0,0.0,55,0.00,,---,0.00,VWS V14.01,2013-10-16 18:53:00,
2013-10-16 13:54:00,59.5,43.4,24.92,SSE,164,0.0,0.0,55,0.00,,---,0.00,VWS V14.01,2013-10-16 18:54:00,
2013-10-16 13:56:00,59.5,43.4,24.92,SSE,164,0.0,0.0,55,0.00,,---,0.00,VWS V14.01,2013-10-16 18:56:00,
2013-10-16 13:57:00,60.3,42.6,24.92,SSE,164,0.0,0.0,52,0.00,,---,0.00,VWS V14.01,2013-10-16 18:57:00,
2013-10-16 13:59:00,60.3,42.6,24.92,SSE,164,0.0,0.0,52,0.00,,---,0.00,VWS V14.01,2013-10-16 18:59:00,
2013-10-16 14:00:00,60.3,42.6,24.92,SSE,164,0.0,0.0,52,0.00,,---,0.00,VWS V14.01,2013-10-16 19:00:00,
2013-10-16 14:01:00,60.3,42.6,24.92,SSE,164,0.0,0.0,52,0.00,,---,0.00,VWS V14.01,2013-10-16 19:01:00,
2013-10-16 14:02:00,60.3,42.6,24.92,SSE,164,0.0,0.0,52,0.00,,---,0.00,VWS V14.01,2013-10-16 19:02:00,
2013-10-16 14:04:00,60.8,40.5,24.92,SSE,164,0.0,0.0,47,0.00,,---,0.00,VWS V14.01,2013-10-16 19:04:00,
2013-10-16 14:05:00,60.8,40.5,24.92,SSE,164,0.0,0.0,47,0.00,,---,0.00,VWS V14.01,2013-10-16 19:05:00,
2013-10-16 14:07:00,60.8,41.5,24.92,SSE,164,0.0,0.0,49,0.00,,---,0.00,VWS V14.01,2013-10-16 19:07:00,
2013-10-16 14:10:00,60.8,41.5,24.92,SSE,164,0.0,0.0,49,0.00,,---,0.00,VWS V14.01,2013-10-16 19:10:00,
2013-10-16 14:12:00,60.8,41.0,24.92,SSE,164,0.0,0.0,48,0.00,,---,0.00,VWS V14.01,2013-10-16 19:12:00,
2013-10-16 14:15:00,60.8,41.0,24.92,SSE,164,0.0,0.0,48,0.00,,---,0.00,VWS V14.01,2013-10-16 19:15:00,
2013-10-16 14:17:00,60.8,41.0,24.92,SSE,164,0.0,0.0,48,0.00,,---,0.00,VWS V14.01,2013-10-16 19:17:00,
2013-10-16 14:18:00,60.8,41.0,24.92,SSE,164,0.0,0.0,48,0.00,,---,0.00,VWS V14.01,2013-10-16 19:18:00,
2013-10-16 14:20:00,61.7,42.4,24.92,SSE,164,0.0,0.0,49,0.00,,---,0.00,VWS V14.01,2013-10-16 19:20:00,
2013-10-16 14:21:00,61.9,42.5,24.92,SSE,164,0.0,0.0,49,0.00,,---,0.00,VWS V14.01,2013-10-16 19:21:00,
2013-10-16 14:22:00,61.9,42.5,24.92,SSE,164,0.0,0.0,49,0.00,,---,0.00,VWS V14.01,2013-10-16 19:22:00,
2013-10-16 14:23:00,61.9,42.5,24.92,SSE,164,0.0,0.0,49,0.00,,---,0.00,VWS V14.01,2013-10-16 19:23:00,
2013-10-16 14:26:00,61.9,42.5,24.92,SSE,164,0.0,0.0,49,0.00,,---,0.00,VWS V14.01,2013-10-16 19:26:00,
2013-10-16 14:27:00,61.9,42.5,24.92,SSE,164,0.0,0.0,49,0.00,,---,0.00,VWS V14.01,2013-10-16 19:27:00,
2013-10-16 14:28:00,63.0,41.3,24.92,SSE,164,0.0,0.0,45,0.00,,---,0.00,VWS V14.01,2013-10-16 19:28:00,
2013-10-16 14:31:00,63.3,41.1,24.92,SSE,164,0.0,0.0,44,0.00,,---,0.00,VWS V14.01,2013-10-16 19:31:00,
2013-10-16 14:32:00,63.3,41.1,24.92,SSE,164,0.0,0.0,44,0.00,,---,0.00,VWS V14.01,2013-10-16 19:32:00,
2013-10-16 14:33:00,63.3,41.1,24.92,SSE,164,0.0,0.0,44,0.00,,---,0.00,VWS V14.01,2013-10-16 19:33:00,
2013-10-16 14:34:00,63.3,41.1,24.92,SSE,164,0.0,0.0,44,0.00,,---,0.00,VWS V14.01,2013-10-16 19:34:00,
2013-10-16 14:36:00,63.1,40.3,24.92,SSE,164,0.0,0.0,43,0.00,,---,0.00,VWS V14.01,2013-10-16 19:36:00,
2013-10-16 14:37:00,63.1,40.3,24.92,SSE,164,0.0,0.0,43,0.00,,---,0.00,VWS V14.01,2013-10-16 19:37:00,
2013-10-16 14:38:00,63.1,40.3,24.92,SSE,164,0.0,0.0,43,0.00,,---,0.00,VWS V14.01,2013-10-16 19:38:00,
2013-10-16 14:39:00,63.1,40.3,24.92,SSE,164,0.0,0.0,43,0.00,,---,0.00,VWS V14.01,2013-10-16 19:39:00,
2013-10-16 14:42:00,63.1,40.3,24.92,SSE,164,0.0,0.0,43,0.00,,---,0.00,VWS V14.01,2013-10-16 19:42:00,
2013-10-16 14:43:00,63.1,40.3,24.92,SSE,164,0.0,0.0,43,0.00,,---,0.00,VWS V14.01,2013-10-16 19:43:00,
2013-10-16 14:44:00,62.8,40.6,24.92,SSE,164,0.0,0.0,44,0.00,,---,0.00,VWS V14.01,2013-10-16 19:44:00,
2013-10-16 14:47:00,62.8,40.6,24.92,SSE,164,0.0,0.0,44,0.00,,---,0.00,VWS V14.01,2013-10-16 19:47:00,
2013-10-16 14:48:00,62.8,40.6,24.92,SSE,164,0.0,0.0,44,0.00,,---,0.00,VWS V14.01,2013-10-16 19:48:00,
2013-10-16 14:49:00,62.8,40.6,24.92,SSE,164,0.0,0.0,44,0.00,,---,0.00,VWS V14.01,2013-10-16 19:49:00,
2013-10-16 14:52:00,62.8,40.6,24.92,SSE,164,0.0,0.0,44,0.00,,---,0.00,VWS V14.01,2013-10-16 19:52:00,
2013-10-16 14:53:00,62.8,40.6,24.92,SSE,164,0.0,0.0,44,0.00,,---,0.00,VWS V14.01,2013-10-16 19:53:00,
2013-10-16 14:54:00,62.8,40.6,24.92,SSE,164,0.0,0.0,44,0.00,,---,0.00,VWS V14.01,2013-10-16 19:54:00,
2013-10-16 14:57:00,63.5,40.0,24.92,SSE,164,0.0,0.0,42,0.00,,---,0.00,VWS V14.01,2013-10-16 19:57:00,
2013-10-16 14:58:00,63.5,40.0,24.92,SSE,164,0.0,0.0,42,0.00,,---,0.00,VWS V14.01,2013-10-16 19:58:00,
2013-10-16 14:59:00,63.5,40.0,24.92,SSE,164,0.0,0.0,42,0.00,,---,0.00,VWS V14.01,2013-10-16 19:59:00,
2013-10-16 15:00:00,63.5,40.0,24.92,SSE,164,0.0,0.0,42,0.00,,---,0.00,VWS V14.01,2013-10-16 20:00:00,
2013-10-16 15:02:00,63.5,40.0,24.92,SSE,164,0.0,0.0,42,0.00,,---,0.00,VWS V14.01,2013-10-16 20:02:00,
2013-10-16 15:03:00,63.5,40.0,24.92,SSE,164,0.0,0.0,42,0.00,,---,0.00,VWS V14.01,2013-10-16 20:03:00,
2013-10-16 15:04:00,63.5,40.0,24.92,SSE,164,0.0,0.0,42,0.00,,---,0.00,VWS V14.01,2013-10-16 20:04:00,
2013-10-16 15:06:00,64.0,39.2,24.92,SSE,164,0.0,0.0,40,0.00,,---,0.00,VWS V14.01,2013-10-16 20:06:00,
2013-10-16 15:07:00,64.6,39.1,24.92,SSE,164,0.0,0.0,39,0.00,,---,0.00,VWS V14.01,2013-10-16 20:07:00,
2013-10-16 15:08:00,64.6,39.1,24.92,SSE,164,0.0,0.0,39,0.00,,---,0.00,VWS V14.01,2013-10-16 20:08:00,
2013-10-16 15:09:00,64.6,39.1,24.92,SSE,164,0.0,0.0,39,0.00,,---,0.00,VWS V14.01,2013-10-16 20:09:00,
2013-10-16 15:10:00,64.6,39.1,24.92,SSE,164,0.0,0.0,39,0.00,,---,0.00,VWS V14.01,2013-10-16 20:10:00,
2013-10-16 15:11:00,64.6,39.1,24.92,SSE,164,0.0,0.0,39,0.00,,---,0.00,VWS V14.01,2013-10-16 20:11:00,
2013-10-16 15:12:00,64.6,39.1,24.92,SSE,164,0.0,0.0,39,0.00,,---,0.00,VWS V14.01,2013-10-16 20:12:00,
2013-10-16 15:13:00,64.6,39.1,24.92,SSE,164,0.0,0.0,39,0.00,,---,0.00,VWS V14.01,2013-10-16 20:13:00,
2013-10-16 15:14:00,64.6,39.1,24.92,SSE,164,0.0,0.0,39,0.00,,---,0.00,VWS V14.01,2013-10-16 20:14:00,
2013-10-16 15:17:00,64.6,39.1,24.92,SSE,164,0.0,0.0,39,0.00,,---,0.00,VWS V14.01,2013-10-16 20:17:00,
2013-10-16 15:19:00,64.6,39.1,24.92,SSE,164,0.0,0.0,39,0.00,,---,0.00,VWS V14.01,2013-10-16 20:19:00,
2013-10-16 15:22:00,67.8,37.7,24.92,SSE,164,0.0,0.0,33,0.00,,---,0.00,VWS V14.01,2013-10-16 20:22:00,
2013-10-16 15:23:00,67.8,37.7,24.92,SSE,164,0.0,0.0,33,0.00,,---,0.00,VWS V14.01,2013-10-16 20:23:00,
2013-10-16 15:24:00,67.8,37.7,24.92,SSE,164,0.0,0.0,33,0.00,,---,0.00,VWS V14.01,2013-10-16 20:24:00,
2013-10-16 15:27:00,67.8,37.7,24.92,SSE,164,0.0,0.0,33,0.00,,---,0.00,VWS V14.01,2013-10-16 20:27:00,
2013-10-16 15:28:00,67.8,37.7,24.92,SSE,164,0.0,0.0,33,0.00,,---,0.00,VWS V14.01,2013-10-16 20:28:00,
2013-10-16 15:29:00,67.8,37.7,24.92,SSE,164,0.0,0.0,33,0.00,,---,0.00,VWS V14.01,2013-10-16 20:29:00,
2013-10-16 15:30:00,67.8,37.7,24.92,SSE,164,0.0,0.0,33,0.00,,---,0.00,VWS V14.01,2013-10-16 20:30:00,
2013-10-16 15:32:00,67.3,37.2,24.92,SSE,164,0.0,0.0,33,0.00,,---,0.00,VWS V14.01,2013-10-16 20:32:00,
2013-10-16 15:33:00,66.7,37.5,24.92,SSE,164,0.0,0.0,34,0.00,,---,0.00,VWS V14.01,2013-10-16 20:33:00,
2013-10-16 15:34:00,66.7,37.5,24.92,SSE,164,0.0,0.0,34,0.00,,---,0.00,VWS V14.01,2013-10-16 20:34:00,
2013-10-16 15:35:00,66.7,37.5,24.92,SSE,164,0.0,0.0,34,0.00,,---,0.00,VWS V14.01,2013-10-16 20:35:00,
2013-10-16 15:38:00,66.7,37.5,24.92,SSE,164,0.0,0.0,34,0.00,,---,0.00,VWS V14.01,2013-10-16 20:38:00,
2013-10-16 15:39:00,66.7,37.5,24.92,SSE,164,0.0,0.0,34,0.00,,---,0.00,VWS V14.01,2013-10-16 20:39:00,
2013-10-16 15:40:00,66.7,37.5,24.92,SSE,164,0.0,0.0,34,0.00,,---,0.00,VWS V14.01,2013-10-16 20:40:00,
2013-10-16 15:43:00,66.7,37.5,24.92,SSE,164,0.0,0.0,34,0.00,,---,0.00,VWS V14.01,2013-10-16 20:43:00,
2013-10-16 15:44:00,66.7,37.5,24.92,SSE,164,0.0,0.0,34,0.00,,---,0.00,VWS V14.01,2013-10-16 20:44:00,
2013-10-16 15:45:00,66.7,37.5,24.92,SSE,164,0.0,0.0,34,0.00,,---,0.00,VWS V14.01,2013-10-16 20:45:00,
2013-10-16 15:48:00,66.7,37.5,24.92,SSE,164,0.0,0.0,34,0.00,,---,0.00,VWS V14.01,2013-10-16 20:48:00,
2013-10-16 15:49:00,66.7,37.5,24.92,SSE,164,0.0,0.0,34,0.00,,---,0.00,VWS V14.01,2013-10-16 20:49:00,
2013-10-16 15:50:00,66.7,37.5,24.92,SSE,164,0.0,0.0,34,0.00,,---,0.00,VWS V14.01,2013-10-16 20:50:00,
2013-10-16 15:53:00,66.7,37.5,24.92,SSE,164,0.0,0.0,34,0.00,,---,0.00,VWS V14.01,2013-10-16 20:53:00,
2013-10-16 15:54:00,69.3,38.2,24.92,SSE,164,0.0,0.0,32,0.00,,---,0.00,VWS V14.01,2013-10-16 20:54:00,
2013-10-16 15:55:00,69.3,38.2,24.92,SSE,164,0.0,0.0,32,0.00,,---,0.00,VWS V14.01,2013-10-16 20:55:00,
2013-10-16 15:56:00,69.3,38.2,24.92,SSE,164,0.0,0.0,32,0.00,,---,0.00,VWS V14.01,2013-10-16 20:56:00,
2013-10-16 15:58:00,69.3,38.2,24.92,SSE,164,0.0,0.0,32,0.00,,---,0.00,VWS V14.01,2013-10-16 20:58:00,
2013-10-16 15:59:00,69.3,38.2,24.92,SSE,164,0.0,0.0,32,0.00,,---,0.00,VWS V14.01,2013-10-16 20:59:00,
2013-10-16 16:00:00,69.3,38.2,24.92,SSE,164,0.0,0.0,32,0.00,,---,0.00,VWS V14.01,2013-10-16 21:00:00,
2013-10-16 16:01:00,69.3,38.2,24.92,SSE,164,0.0,0.0,32,0.00,,---,0.00,VWS V14.01,2013-10-16 21:01:00,
2013-10-16 16:04:00,71.2,33.6,24.92,SSE,164,0.0,0.0,25,0.00,,---,0.00,VWS V14.01,2013-10-16 21:04:00,
2013-10-16 16:05:00,71.2,33.6,24.92,SSE,164,0.0,0.0,25,0.00,,---,0.00,VWS V14.01,2013-10-16 21:05:00,
2013-10-16 16:07:00,71.2,33.6,24.92,SSE,164,0.0,0.0,25,0.00,,---,0.00,VWS V14.01,2013-10-16 21:07:00,
2013-10-16 16:09:00,71.2,33.6,24.92,SSE,164,0.0,0.0,25,0.00,,---,0.00,VWS V14.01,2013-10-16 21:09:00,
2013-10-16 16:10:00,71.6,32.9,24.92,SSE,164,0.0,0.0,24,0.00,,---,0.00,VWS V14.01,2013-10-16 21:10:00,
2013-10-16 16:12:00,71.6,32.9,24.92,SSE,164,0.0,0.0,24,0.00,,---,0.00,VWS V14.01,2013-10-16 21:12:00,
2013-10-16 16:14:00,71.6,32.9,24.92,SSE,164,0.0,0.0,24,0.00,,---,0.00,VWS V14.01,2013-10-16 21:14:00,
2013-10-16 16:16:00,71.6,32.9,24.92,SSE,164,0.0,0.0,24,0.00,,---,0.00,VWS V14.01,2013-10-16 21:16:00,
2013-10-16 16:17:00,71.6,32.9,24.92,SSE,164,0.0,0.0,24,0.00,,---,0.00,VWS V14.01,2013-10-16 21:17:00,
2013-10-16 16:18:00,71.6,31.9,24.92,SSE,164,0.0,0.0,23,0.00,,---,0.00,VWS V14.01,2013-10-16 21:18:00,
2013-10-16 16:19:00,71.6,31.9,24.92,SSE,164,0.0,0.0,23,0.00,,---,0.00,VWS V14.01,2013-10-16 21:19:00,
2013-10-16 16:21:00,71.6,31.9,24.92,SSE,164,0.0,0.0,23,0.00,,---,0.00,VWS V14.01,2013-10-16 21:21:00,
2013-10-16 16:22:00,71.6,31.9,24.92,SSE,164,0.0,0.0,23,0.00,,---,0.00,VWS V14.01,2013-10-16 21:22:00,
2013-10-16 16:23:00,71.6,31.9,24.92,SSE,164,0.0,0.0,23,0.00,,---,0.00,VWS V14.01,2013-10-16 21:23:00,
2013-10-16 16:24:00,71.6,31.9,24.92,SSE,164,0.0,0.0,23,0.00,,---,0.00,VWS V14.01,2013-10-16 21:24:00,
2013-10-16 16:26:00,71.6,31.9,24.92,SSE,164,0.0,0.0,23,0.00,,---,0.00,VWS V14.01,2013-10-16 21:26:00,
2013-10-16 16:27:00,71.6,31.9,24.92,SSE,164,0.0,0.0,23,0.00,,---,0.00,VWS V14.01,2013-10-16 21:27:00,
2013-10-16 16:28:00,71.6,31.9,24.92,SSE,164,0.0,0.0,23,0.00,,---,0.00,VWS V14.01,2013-10-16 21:28:00,
2013-10-16 16:30:00,71.6,31.9,24.92,SSE,164,0.0,0.0,23,0.00,,---,0.00,VWS V14.01,2013-10-16 21:30:00,
2013-10-16 16:31:00,71.6,31.9,24.92,SSE,164,0.0,0.0,23,0.00,,---,0.00,VWS V14.01,2013-10-16 21:31:00,
2013-10-16 16:32:00,71.6,31.9,24.92,SSE,164,0.0,0.0,23,0.00,,---,0.00,VWS V14.01,2013-10-16 21:32:00,
2013-10-16 16:33:00,71.6,31.9,24.92,SSE,164,0.0,0.0,23,0.00,,---,0.00,VWS V14.01,2013-10-16 21:33:00,
2013-10-16 16:35:00,71.6,31.9,24.92,SSE,164,0.0,0.0,23,0.00,,---,0.00,VWS V14.01,2013-10-16 21:35:00,
2013-10-16 16:36:00,71.6,31.9,24.92,SSE,164,0.0,0.0,23,0.00,,---,0.00,VWS V14.01,2013-10-16 21:36:00,
2013-10-16 16:37:00,71.6,31.9,24.92,SSE,164,0.0,0.0,23,0.00,,---,0.00,VWS V14.01,2013-10-16 21:37:00,
2013-10-16 16:38:00,71.6,31.9,24.92,SSE,164,0.0,0.0,23,0.00,,---,0.00,VWS V14.01,2013-10-16 21:38:00,
2013-10-16 16:39:00,71.6,31.9,24.92,SSE,164,0.0,0.0,23,0.00,,---,0.00,VWS V14.01,2013-10-16 21:39:00,
2013-10-16 16:40:00,71.6,31.9,24.92,SSE,164,0.0,0.0,23,0.00,,---,0.00,VWS V14.01,2013-10-16 21:40:00,
2013-10-16 16:42:00,72.0,31.1,24.92,SSE,164,0.0,0.0,22,0.00,,---,0.00,VWS V14.01,2013-10-16 21:42:00,
2013-10-16 16:43:00,72.0,31.1,24.92,SSE,164,0.0,0.0,22,0.00,,---,0.00,VWS V14.01,2013-10-16 21:43:00,
2013-10-16 16:44:00,72.0,31.1,24.92,SSE,164,0.0,0.0,22,0.00,,---,0.00,VWS V14.01,2013-10-16 21:44:00,
2013-10-16 16:45:00,72.0,31.1,24.92,SSE,164,0.0,0.0,22,0.00,,---,0.00,VWS V14.01,2013-10-16 21:45:00,
2013-10-16 16:46:00,72.0,31.1,24.92,SSE,164,0.0,0.0,22,0.00,,---,0.00,VWS V14.01,2013-10-16 21:46:00,
2013-10-16 16:47:00,72.0,31.1,24.92,SSE,164,0.0,0.0,22,0.00,,---,0.00,VWS V14.01,2013-10-16 21:47:00,
2013-10-16 16:48:00,72.0,31.1,24.92,SSE,164,0.0,0.0,22,0.00,,---,0.00,VWS V14.01,2013-10-16 21:48:00,
2013-10-16 16:49:00,72.0,31.1,24.92,SSE,164,0.0,0.0,22,0.00,,---,0.00,VWS V14.01,2013-10-16 21:49:00,
2013-10-16 16:50:00,72.0,31.1,24.92,SSE,164,0.0,0.0,22,0.00,,---,0.00,VWS V14.01,2013-10-16 21:50:00,
2013-10-16 16:51:00,72.0,31.1,24.92,SSE,164,0.0,0.0,22,0.00,,---,0.00,VWS V14.01,2013-10-16 21:51:00,
2013-10-16 16:52:00,72.1,31.2,24.92,SSE,164,0.0,0.0,22,0.00,,---,0.00,VWS V14.01,2013-10-16 21:52:00,
2013-10-16 16:53:00,72.1,31.2,24.92,SSE,164,0.0,0.0,22,0.00,,---,0.00,VWS V14.01,2013-10-16 21:53:00,
2013-10-16 16:55:00,72.1,31.2,24.86,SSE,164,0.0,0.0,22,0.00,,---,0.00,VWS V14.01,2013-10-16 21:55:00,
2013-10-16 16:56:00,72.1,31.2,24.86,SSE,164,0.0,0.0,22,0.00,,---,0.00,VWS V14.01,2013-10-16 21:56:00,
2013-10-16 16:57:00,72.1,31.2,24.86,SSE,164,0.0,0.0,22,0.00,,---,0.00,VWS V14.01,2013-10-16 21:57:00,
2013-10-16 16:58:00,72.1,31.2,24.86,SSE,164,0.0,0.0,22,0.00,,---,0.00,VWS V14.01,2013-10-16 21:58:00,
2013-10-16 16:59:00,72.1,31.2,24.86,SSE,164,0.0,0.0,22,0.00,,---,0.00,VWS V14.01,2013-10-16 21:59:00,
2013-10-16 17:00:00,72.1,31.2,24.86,SSE,164,0.0,0.0,22,0.00,,---,0.00,VWS V14.01,2013-10-16 22:00:00,
2013-10-16 17:01:00,71.8,30.9,24.86,SSE,164,0.0,0.0,22,0.00,,---,0.00,VWS V14.01,2013-10-16 22:01:00,
2013-10-16 17:02:00,71.8,30.9,24.86,SSE,164,0.0,0.0,22,0.00,,---,0.00,VWS V14.01,2013-10-16 22:02:00,
2013-10-16 17:03:00,71.8,30.9,24.86,SSE,164,0.0,0.0,22,0.00,,---,0.00,VWS V14.01,2013-10-16 22:03:00,
2013-10-16 17:04:00,71.6,30.8,24.86,SSE,164,0.0,0.0,22,0.00,,---,0.00,VWS V14.01,2013-10-16 22:04:00,
2013-10-16 17:05:00,71.6,30.8,24.86,SSE,164,0.0,0.0,22,0.00,,---,0.00,VWS V14.01,2013-10-16 22:05:00,
2013-10-16 17:06:00,71.6,30.8,24.86,SSE,164,0.0,0.0,22,0.00,,---,0.00,VWS V14.01,2013-10-16 22:06:00,
2013-10-16 17:07:00,71.6,30.8,24.86,SSE,164,0.0,0.0,22,0.00,,---,0.00,VWS V14.01,2013-10-16 22:07:00,
2013-10-16 17:08:00,71.6,30.8,24.86,SSE,164,0.0,0.0,22,0.00,,---,0.00,VWS V14.01,2013-10-16 22:08:00,
2013-10-16 17:09:00,71.6,30.8,24.86,SSE,164,0.0,0.0,22,0.00,,---,0.00,VWS V14.01,2013-10-16 22:09:00,
2013-10-16 17:10:00,71.6,30.8,24.86,SSE,164,0.0,0.0,22,0.00,,---,0.00,VWS V14.01,2013-10-16 22:10:00,
2013-10-16 17:11:00,71.6,30.8,24.86,SSE,164,0.0,0.0,22,0.00,,---,0.00,VWS V14.01,2013-10-16 22:11:00,
2013-10-16 17:12:00,71.6,30.8,24.86,SSE,164,0.0,0.0,22,0.00,,---,0.00,VWS V14.01,2013-10-16 22:12:00,
2013-10-16 17:13:00,71.6,30.8,24.86,SSE,164,0.0,0.0,22,0.00,,---,0.00,VWS V14.01,2013-10-16 22:13:00,
2013-10-16 17:15:00,71.6,30.8,24.86,SSE,164,0.0,0.0,22,0.00,,---,0.00,VWS V14.01,2013-10-16 22:15:00,
2013-10-16 17:16:00,71.6,30.8,24.86,SSE,164,0.0,0.0,22,0.00,,---,0.00,VWS V14.01,2013-10-16 22:16:00,
2013-10-16 17:18:00,71.6,30.8,24.86,SSE,164,0.0,0.0,22,0.00,,---,0.00,VWS V14.01,2013-10-16 22:18:00,
2013-10-16 17:19:00,71.6,30.8,24.86,SSE,164,0.0,0.0,22,0.00,,---,0.00,VWS V14.01,2013-10-16 22:19:00,
2013-10-16 17:20:00,71.6,30.8,24.86,SSE,164,0.0,0.0,22,0.00,,---,0.00,VWS V14.01,2013-10-16 22:20:00,
2013-10-16 17:21:00,71.6,30.8,24.86,SSE,164,0.0,0.0,22,0.00,,---,0.00,VWS V14.01,2013-10-16 22:21:00,
2013-10-16 17:23:00,71.6,30.8,24.86,SSE,164,0.0,0.0,22,0.00,,---,0.00,VWS V14.01,2013-10-16 22:23:00,
2013-10-16 17:24:00,71.4,30.6,24.86,SSE,164,0.0,0.0,22,0.00,,---,0.00,VWS V14.01,2013-10-16 22:24:00,
2013-10-16 17:25:00,71.4,30.6,24.86,SSE,164,0.0,0.0,22,0.00,,---,0.00,VWS V14.01,2013-10-16 22:25:00,
2013-10-16 17:26:00,71.4,30.6,24.86,SSE,164,0.0,0.0,22,0.00,,---,0.00,VWS V14.01,2013-10-16 22:26:00,
2013-10-16 17:28:00,71.6,30.8,24.86,SSE,164,0.0,0.0,22,0.00,,---,0.00,VWS V14.01,2013-10-16 22:28:00,
2013-10-16 17:29:00,71.6,30.8,24.86,SSE,164,0.0,0.0,22,0.00,,---,0.00,VWS V14.01,2013-10-16 22:29:00,
2013-10-16 17:31:00,71.6,30.8,24.86,SSE,164,0.0,0.0,22,0.00,,---,0.00,VWS V14.01,2013-10-16 22:31:00,
2013-10-16 17:33:00,71.6,30.8,24.86,SSE,164,0.0,0.0,22,0.00,,---,0.00,VWS V14.01,2013-10-16 22:33:00,
2013-10-16 17:34:00,71.6,30.8,24.89,SSE,164,0.0,0.0,22,0.00,,---,0.00,VWS V14.01,2013-10-16 22:34:00,
2013-10-16 17:36:00,71.6,30.8,24.89,SSE,164,0.0,0.0,22,0.00,,---,0.00,VWS V14.01,2013-10-16 22:36:00,
2013-10-16 17:37:00,71.6,30.8,24.89,SSE,164,0.0,0.0,22,0.00,,---,0.00,VWS V14.01,2013-10-16 22:37:00,
2013-10-16 17:38:00,71.6,30.8,24.89,SSE,164,0.0,0.0,22,0.00,,---,0.00,VWS V14.01,2013-10-16 22:38:00,
2013-10-16 17:39:00,71.6,30.8,24.89,SSE,164,0.0,0.0,22,0.00,,---,0.00,VWS V14.01,2013-10-16 22:39:00,
2013-10-16 17:41:00,71.6,30.8,24.89,SSE,164,0.0,0.0,22,0.00,,---,0.00,VWS V14.01,2013-10-16 22:41:00,
2013-10-16 17:42:00,71.6,30.8,24.89,SSE,164,0.0,0.0,22,0.00,,---,0.00,VWS V14.01,2013-10-16 22:42:00,
2013-10-16 17:44:00,71.6,30.8,24.89,SSE,164,0.0,0.0,22,0.00,,---,0.00,VWS V14.01,2013-10-16 22:44:00,
2013-10-16 17:45:00,71.6,30.8,24.89,SSE,164,0.0,0.0,22,0.00,,---,0.00,VWS V14.01,2013-10-16 22:45:00,
2013-10-16 17:46:00,71.6,30.8,24.89,SSE,164,0.0,0.0,22,0.00,,---,0.00,VWS V14.01,2013-10-16 22:46:00,
2013-10-16 17:47:00,71.6,30.8,24.89,SSE,164,0.0,0.0,22,0.00,,---,0.00,VWS V14.01,2013-10-16 22:47:00,
2013-10-16 17:49:00,71.6,30.8,24.89,SSE,164,0.0,0.0,22,0.00,,---,0.00,VWS V14.01,2013-10-16 22:49:00,
2013-10-16 17:50:00,71.2,30.5,24.89,SSE,164,0.0,0.0,22,0.00,,---,0.00,VWS V14.01,2013-10-16 22:50:00,
2013-10-16 17:52:00,71.2,30.5,24.89,SSE,164,0.0,0.0,22,0.00,,---,0.00,VWS V14.01,2013-10-16 22:52:00,
2013-10-16 17:53:00,71.2,30.5,24.89,SSE,164,0.0,0.0,22,0.00,,---,0.00,VWS V14.01,2013-10-16 22:53:00,
2013-10-16 17:54:00,71.2,30.5,24.89,SSE,164,0.0,0.0,22,0.00,,---,0.00,VWS V14.01,2013-10-16 22:54:00,
2013-10-16 17:55:00,71.2,30.5,24.89,SSE,164,0.0,0.0,22,0.00,,---,0.00,VWS V14.01,2013-10-16 22:55:00,
2013-10-16 17:57:00,71.2,30.5,24.89,SSE,164,0.0,0.0,22,0.00,,---,0.00,VWS V14.01,2013-10-16 22:57:00,
2013-10-16 17:59:00,70.5,29.9,24.89,SSE,164,0.0,0.0,22,0.00,,---,0.00,VWS V14.01,2013-10-16 22:59:00,
2013-10-16 18:00:00,70.5,29.9,24.89,SSE,164,0.0,0.0,22,0.00,,---,0.00,VWS V14.01,2013-10-16 23:00:00,
2013-10-16 18:03:00,70.0,29.4,24.89,SSE,164,0.0,0.0,22,0.00,,---,0.00,VWS V14.01,2013-10-16 23:03:00,
2013-10-16 18:04:00,70.0,29.4,24.89,SSE,164,0.0,0.0,22,0.00,,---,0.00,VWS V14.01,2013-10-16 23:04:00,
2013-10-16 18:05:00,70.0,29.4,24.89,SSE,164,0.0,0.0,22,0.00,,---,0.00,VWS V14.01,2013-10-16 23:05:00,
2013-10-16 18:08:00,70.0,29.4,24.89,SSE,164,0.0,0.0,22,0.00,,---,0.00,VWS V14.01,2013-10-16 23:08:00,
2013-10-16 18:09:00,70.0,29.4,24.89,SSE,164,0.0,0.0,22,0.00,,---,0.00,VWS V14.01,2013-10-16 23:09:00,
2013-10-16 18:10:00,70.0,29.4,24.89,SSE,164,0.0,0.0,22,0.00,,---,0.00,VWS V14.01,2013-10-16 23:10:00,
2013-10-16 18:11:00,70.0,29.4,24.89,SSE,164,0.0,0.0,22,0.00,,---,0.00,VWS V14.01,2013-10-16 23:11:00,
2013-10-16 18:14:00,70.0,29.4,24.89,SSE,164,0.0,0.0,22,0.00,,---,0.00,VWS V14.01,2013-10-16 23:14:00,
2013-10-16 18:15:00,67.8,34.4,24.89,SSE,164,0.0,0.0,29,0.00,,---,0.00,VWS V14.01,2013-10-16 23:15:00,
2013-10-16 18:16:00,67.8,34.4,24.89,SSE,164,0.0,0.0,29,0.00,,---,0.00,VWS V14.01,2013-10-16 23:16:00,
2013-10-16 18:19:00,66.7,36.0,24.89,SSE,164,0.0,0.0,32,0.00,,---,0.00,VWS V14.01,2013-10-16 23:19:00,
2013-10-16 18:20:00,66.7,36.0,24.89,SSE,164,0.0,0.0,32,0.00,,---,0.00,VWS V14.01,2013-10-16 23:20:00,
2013-10-16 18:21:00,66.7,36.0,24.89,SSE,164,0.0,0.0,32,0.00,,---,0.00,VWS V14.01,2013-10-16 23:21:00,
2013-10-16 18:22:00,66.7,36.0,24.89,SSE,164,0.0,0.0,32,0.00,,---,0.00,VWS V14.01,2013-10-16 23:22:00,
2013-10-16 18:24:00,66.7,36.0,24.89,SSE,164,0.0,0.0,32,0.00,,---,0.00,VWS V14.01,2013-10-16 23:24:00,
2013-10-16 18:25:00,66.7,36.0,24.89,SSE,164,0.0,0.0,32,0.00,,---,0.00,VWS V14.01,2013-10-16 23:25:00,
2013-10-16 18:26:00,66.7,36.0,24.89,SSE,164,0.0,0.0,32,0.00,,---,0.00,VWS V14.01,2013-10-16 23:26:00,
2013-10-16 18:27:00,61.3,38.7,24.89,SSE,164,0.0,0.0,43,0.00,,---,0.00,VWS V14.01,2013-10-16 23:27:00,
2013-10-16 18:29:00,61.3,38.7,24.89,SSE,164,0.0,0.0,43,0.00,,---,0.00,VWS V14.01,2013-10-16 23:29:00,
2013-10-16 18:30:00,61.3,38.7,24.89,SSE,164,0.0,0.0,43,0.00,,---,0.00,VWS V14.01,2013-10-16 23:30:00,
2013-10-16 18:31:00,61.3,38.7,24.89,SSE,164,0.0,0.0,43,0.00,,---,0.00,VWS V14.01,2013-10-16 23:31:00,
2013-10-16 18:32:00,61.3,38.7,24.89,SSE,164,0.0,0.0,43,0.00,,---,0.00,VWS V14.01,2013-10-16 23:32:00,
2013-10-16 18:34:00,61.3,38.7,24.89,SSE,164,0.0,0.0,43,0.00,,---,0.00,VWS V14.01,2013-10-16 23:34:00,
2013-10-16 18:35:00,61.3,38.7,24.89,SSE,164,0.0,0.0,43,0.00,,---,0.00,VWS V14.01,2013-10-16 23:35:00,
2013-10-16 18:36:00,60.1,39.8,24.89,SSE,164,0.0,0.0,47,0.00,,---,0.00,VWS V14.01,2013-10-16 23:36:00,
2013-10-16 18:37:00,60.1,39.8,24.89,SSE,164,0.0,0.0,47,0.00,,---,0.00,VWS V14.01,2013-10-16 23:37:00,
2013-10-16 18:38:00,59.9,39.1,24.89,SSE,164,0.0,0.0,46,0.00,,---,0.00,VWS V14.01,2013-10-16 23:38:00,
2013-10-16 18:40:00,59.9,39.1,24.89,SSE,164,0.0,0.0,46,0.00,,---,0.00,VWS V14.01,2013-10-16 23:40:00,
2013-10-16 18:41:00,59.9,39.1,24.89,SSE,164,0.0,0.0,46,0.00,,---,0.00,VWS V14.01,2013-10-16 23:41:00,
2013-10-16 18:42:00,59.2,39.5,24.89,SSE,164,0.0,0.0,48,0.00,,---,0.00,VWS V14.01,2013-10-16 23:42:00,
2013-10-16 18:45:00,59.2,39.5,24.89,SSE,164,0.0,0.0,48,0.00,,---,0.00,VWS V14.01,2013-10-16 23:45:00,
2013-10-16 18:46:00,59.2,39.5,24.89,SSE,164,0.0,0.0,48,0.00,,---,0.00,VWS V14.01,2013-10-16 23:46:00,
2013-10-16 18:48:00,58.6,40.1,24.89,SSE,164,0.0,0.0,50,0.00,,---,0.00,VWS V14.01,2013-10-16 23:48:00,
2013-10-16 18:50:00,58.6,40.1,24.89,SE,139,8.3,8.3,50,0.00,,---,0.00,VWS V14.01,2013-10-16 23:50:00,
2013-10-16 18:51:00,58.6,40.1,24.89,SE,139,8.3,8.3,50,0.00,,---,0.00,VWS V14.01,2013-10-16 23:51:00,
2013-10-16 18:53:00,58.6,40.1,24.89,SSE,160,6.3,6.3,50,0.00,,---,0.00,VWS V14.01,2013-10-16 23:53:00,
2013-10-16 18:55:00,57.9,40.4,24.89,SSE,160,6.3,6.3,52,0.00,,---,0.00,VWS V14.01,2013-10-16 23:55:00,
2013-10-16 18:56:00,57.9,40.4,24.89,SE,146,5.4,6.3,52,0.00,,---,0.00,VWS V14.01,2013-10-16 23:56:00,
2013-10-16 18:57:00,57.7,40.7,24.89,SE,146,5.4,5.4,53,0.00,,---,0.00,VWS V14.01,2013-10-16 23:57:00,
2013-10-16 18:58:00,57.7,40.7,24.89,SE,146,5.4,5.4,53,0.00,,---,0.00,VWS V14.01,2013-10-16 23:58:00,
2013-10-16 19:01:00,57.7,40.7,24.89,SE,142,3.6,6.7,53,0.00,,---,0.00,VWS V14.01,2013-10-17 00:01:00,
2013-10-16 19:02:00,57.2,41.2,24.89,SSE,153,4.9,4.9,55,0.00,,---,0.00,VWS V14.01,2013-10-17 00:02:00,
2013-10-16 19:03:00,57.2,41.2,24.89,SSE,153,4.9,4.9,55,0.00,,---,0.00,VWS V14.01,2013-10-17 00:03:00,
2013-10-16 19:06:00,56.8,41.8,24.89,SE,130,3.6,3.6,57,0.00,,---,0.00,VWS V14.01,2013-10-17 00:06:00,
2013-10-16 19:07:00,56.7,43.0,24.89,SE,130,3.6,3.6,60,0.00,,---,0.00,VWS V14.01,2013-10-17 00:07:00,
2013-10-16 19:09:00,56.7,43.0,24.89,SSE,168,4.9,4.9,60,0.00,,---,0.00,VWS V14.01,2013-10-17 00:09:00,
2013-10-16 19:11:00,56.7,43.0,24.89,SSE,164,5.8,5.8,60,0.00,,---,0.00,VWS V14.01,2013-10-17 00:11:00,
2013-10-16 19:12:00,56.7,43.0,24.89,SSE,168,3.1,3.1,60,0.00,,---,0.00,VWS V14.01,2013-10-17 00:12:00,
2013-10-16 19:14:00,56.3,42.6,24.89,South,179,4.9,4.9,60,0.00,,---,0.00,VWS V14.01,2013-10-17 00:14:00,
2013-10-16 19:16:00,56.1,42.9,24.89,South,179,4.9,4.9,61,0.00,,---,0.00,VWS V14.01,2013-10-17 00:16:00,
2013-10-16 19:17:00,56.1,42.9,24.89,South,179,4.9,4.9,61,0.00,,---,0.00,VWS V14.01,2013-10-17 00:17:00,
2013-10-16 19:19:00,56.1,42.9,24.89,SSE,168,4.0,4.0,61,0.00,,---,0.00,VWS V14.01,2013-10-17 00:19:00,
2013-10-16 19:21:00,55.2,43.7,24.89,SSE,163,3.6,3.6,65,0.00,,---,0.00,VWS V14.01,2013-10-17 00:21:00,
2013-10-16 19:22:00,55.2,43.7,24.89,SSE,163,3.6,3.6,65,0.00,,---,0.00,VWS V14.01,2013-10-17 00:22:00,
2013-10-16 19:23:00,55.2,43.7,24.89,ESE,119,5.4,5.4,65,0.00,,---,0.00,VWS V14.01,2013-10-17 00:23:00,
2013-10-16 19:24:00,55.2,43.7,24.89,ESE,119,5.4,5.4,65,0.00,,---,0.00,VWS V14.01,2013-10-17 00:24:00,
2013-10-16 19:26:00,54.7,44.3,24.89,ESE,119,5.4,5.4,68,0.00,,---,0.00,VWS V14.01,2013-10-17 00:26:00,
2013-10-16 19:27:00,54.7,44.3,24.89,ESE,115,3.6,5.4,68,0.00,,---,0.00,VWS V14.01,2013-10-17 00:27:00,
2013-10-16 19:28:00,54.7,44.3,24.89,ESE,113,3.6,4.0,68,0.00,,---,0.00,VWS V14.01,2013-10-17 00:28:00,
2013-10-16 19:29:00,54.7,44.3,24.89,ESE,113,3.6,3.6,68,0.00,,---,0.00,VWS V14.01,2013-10-17 00:29:00,
2013-10-16 19:31:00,54.5,44.2,24.89,ESE,122,3.6,3.6,68,0.00,,---,0.00,VWS V14.01,2013-10-17 00:31:00,
2013-10-16 19:32:00,54.3,44.4,24.89,ESE,122,3.6,3.6,69,0.00,,---,0.00,VWS V14.01,2013-10-17 00:32:00,
2013-10-16 19:33:00,54.3,44.4,24.89,ESE,122,3.6,3.6,69,0.00,,---,0.00,VWS V14.01,2013-10-17 00:33:00,
2013-10-16 19:34:00,54.3,44.4,24.89,SE,132,3.1,3.6,69,0.00,,---,0.00,VWS V14.01,2013-10-17 00:34:00,
2013-10-16 19:37:00,54.3,44.4,24.89,SE,132,3.1,3.1,69,0.00,,---,0.00,VWS V14.01,2013-10-17 00:37:00,
2013-10-16 19:38:00,54.3,44.4,24.89,SE,132,3.1,3.1,69,0.00,,---,0.00,VWS V14.01,2013-10-17 00:38:00,
2013-10-16 19:39:00,54.3,44.4,24.89,SE,132,3.1,3.1,69,0.00,,---,0.00,VWS V14.01,2013-10-17 00:39:00,
2013-10-16 19:42:00,54.3,44.4,24.89,SE,143,3.1,3.1,69,0.00,,---,0.00,VWS V14.01,2013-10-17 00:42:00,
2013-10-16 19:43:00,54.3,44.4,24.89,SE,143,3.1,3.1,69,0.00,,---,0.00,VWS V14.01,2013-10-17 00:43:00,
2013-10-16 19:44:00,54.3,44.4,24.92,SE,143,3.1,3.1,69,0.00,,---,0.00,VWS V14.01,2013-10-17 00:44:00,
2013-10-16 19:47:00,53.4,45.3,24.92,SE,143,3.1,3.1,74,0.00,,---,0.00,VWS V14.01,2013-10-17 00:47:00,
2013-10-16 19:48:00,53.4,45.7,24.92,SE,143,3.1,3.1,75,0.00,,---,0.00,VWS V14.01,2013-10-17 00:48:00,
2013-10-16 19:49:00,53.4,45.7,24.92,SE,143,3.1,3.1,75,0.00,,---,0.00,VWS V14.01,2013-10-17 00:49:00,
2013-10-16 19:52:00,53.4,45.7,24.89,SE,143,3.1,3.1,75,0.00,,---,0.00,VWS V14.01,2013-10-17 00:52:00,
2013-10-16 19:53:00,53.4,45.7,24.89,SE,143,3.1,3.1,75,0.00,,---,0.00,VWS V14.01,2013-10-17 00:53:00,
2013-10-16 19:54:00,53.4,46.1,24.89,SE,143,3.1,3.1,76,0.00,,---,0.00,VWS V14.01,2013-10-17 00:54:00,
2013-10-16 19:55:00,53.4,46.1,24.89,SE,143,3.1,3.1,76,0.00,,---,0.00,VWS V14.01,2013-10-17 00:55:00,
2013-10-16 19:57:00,53.4,46.1,24.89,SE,143,3.1,3.1,76,0.00,,---,0.00,VWS V14.01,2013-10-17 00:57:00,
2013-10-16 19:58:00,53.6,46.2,24.89,SE,143,3.1,3.1,76,0.00,,---,0.00,VWS V14.01,2013-10-17 00:58:00,
2013-10-16 19:59:00,53.6,46.2,24.89,SE,143,3.1,3.1,76,0.00,,---,0.00,VWS V14.01,2013-10-17 00:59:00,
2013-10-16 20:00:00,53.6,46.2,24.89,SE,143,3.1,3.1,76,0.00,,---,0.00,VWS V14.01,2013-10-17 01:00:00,
2013-10-16 20:02:00,53.6,46.2,24.89,SE,143,3.1,3.1,76,0.00,,---,0.00,VWS V14.01,2013-10-17 01:02:00,
2013-10-16 20:03:00,53.6,46.2,24.89,SE,143,3.1,3.1,76,0.00,,---,0.00,VWS V14.01,2013-10-17 01:03:00,
2013-10-16 20:04:00,53.6,46.2,24.89,SE,143,3.1,3.1,76,0.00,,---,0.00,VWS V14.01,2013-10-17 01:04:00,
2013-10-16 20:05:00,53.6,46.2,24.89,SE,143,3.1,3.1,76,0.00,,---,0.00,VWS V14.01,2013-10-17 01:05:00,
2013-10-16 20:07:00,53.6,46.2,24.89,SE,143,3.1,3.1,76,0.00,,---,0.00,VWS V14.01,2013-10-17 01:07:00,
2013-10-16 20:08:00,53.6,46.2,24.89,SE,143,3.1,3.1,76,0.00,,---,0.00,VWS V14.01,2013-10-17 01:08:00,
2013-10-16 20:09:00,53.6,46.2,24.89,SE,143,3.1,3.1,76,0.00,,---,0.00,VWS V14.01,2013-10-17 01:09:00,
2013-10-16 20:10:00,53.6,46.2,24.92,SE,143,3.1,3.1,76,0.00,,---,0.00,VWS V14.01,2013-10-17 01:10:00,
2013-10-16 20:11:00,53.6,46.2,24.92,SE,143,3.1,3.1,76,0.00,,---,0.00,VWS V14.01,2013-10-17 01:11:00,
2013-10-16 20:12:00,54.0,46.9,24.92,SE,143,3.1,3.1,77,0.00,,---,0.00,VWS V14.01,2013-10-17 01:12:00,
2013-10-16 20:13:00,54.0,46.9,24.92,SE,143,3.1,3.1,77,0.00,,---,0.00,VWS V14.01,2013-10-17 01:13:00,
2013-10-16 20:15:00,54.0,46.9,24.92,SE,143,3.1,3.1,77,0.00,,---,0.00,VWS V14.01,2013-10-17 01:15:00,
2013-10-16 20:16:00,54.0,46.9,24.92,SE,143,3.1,3.1,77,0.00,,---,0.00,VWS V14.01,2013-10-17 01:16:00,
2013-10-16 20:17:00,54.0,46.9,24.92,SE,143,3.1,3.1,77,0.00,,---,0.00,VWS V14.01,2013-10-17 01:17:00,
2013-10-16 20:18:00,54.0,46.9,24.92,SE,143,3.1,3.1,77,0.00,,---,0.00,VWS V14.01,2013-10-17 01:18:00,
2013-10-16 20:20:00,54.0,46.9,24.92,SE,143,3.1,3.1,77,0.00,,---,0.00,VWS V14.01,2013-10-17 01:20:00,
2013-10-16 20:21:00,54.0,46.9,24.92,SE,143,3.1,3.1,77,0.00,,---,0.00,VWS V14.01,2013-10-17 01:21:00,
2013-10-16 20:22:00,54.0,46.9,24.92,SE,143,3.1,3.1,77,0.00,,---,0.00,VWS V14.01,2013-10-17 01:22:00,
2013-10-16 20:23:00,54.0,46.9,24.92,SE,143,3.1,3.1,77,0.00,,---,0.00,VWS V14.01,2013-10-17 01:23:00,
2013-10-16 20:25:00,54.0,46.9,24.92,SE,143,3.1,3.1,77,0.00,,---,0.00,VWS V14.01,2013-10-17 01:25:00,
2013-10-16 20:26:00,54.0,46.9,24.92,SE,143,3.1,3.1,77,0.00,,---,0.00,VWS V14.01,2013-10-17 01:26:00,
2013-10-16 20:27:00,54.0,46.9,24.92,SE,143,3.1,3.1,77,0.00,,---,0.00,VWS V14.01,2013-10-17 01:27:00,
2013-10-16 20:28:00,54.0,46.9,24.92,ESE,120,4.0,4.0,77,0.00,,---,0.00,VWS V14.01,2013-10-17 01:28:00,
2013-10-16 20:31:00,54.0,46.9,24.92,ESE,109,4.0,4.0,77,0.00,,---,0.00,VWS V14.01,2013-10-17 01:31:00,
2013-10-16 20:32:00,54.0,46.9,24.92,ESE,109,4.0,4.0,77,0.00,,---,0.00,VWS V14.01,2013-10-17 01:32:00,
2013-10-16 20:33:00,54.0,46.9,24.92,SE,138,0.0,4.0,77,0.00,,---,0.00,VWS V14.01,2013-10-17 01:33:00,
2013-10-16 20:36:00,54.0,46.9,24.92,SE,146,0.0,0.0,77,0.00,,---,0.00,VWS V14.01,2013-10-17 01:36:00,
2013-10-16 20:37:00,54.0,46.9,24.92,South,171,0.0,0.0,77,0.00,,---,0.00,VWS V14.01,2013-10-17 01:37:00,
2013-10-16 20:38:00,54.0,46.9,24.92,South,171,0.0,0.0,77,0.00,,---,0.00,VWS V14.01,2013-10-17 01:38:00,
2013-10-16 20:39:00,54.0,46.9,24.92,South,169,0.0,0.0,77,0.00,,---,0.00,VWS V14.01,2013-10-17 01:39:00,
2013-10-16 20:41:00,54.0,46.9,24.92,South,169,0.0,0.0,77,0.00,,---,0.00,VWS V14.01,2013-10-17 01:41:00,
2013-10-16 20:42:00,54.0,46.9,24.92,South,169,0.0,0.0,77,0.00,,---,0.00,VWS V14.01,2013-10-17 01:42:00,
2013-10-16 20:44:00,54.0,46.9,24.92,South,169,0.0,0.0,77,0.00,,---,0.00,VWS V14.01,2013-10-17 01:44:00,
2013-10-16 20:46:00,54.0,46.9,24.92,South,169,0.0,0.0,77,0.00,,---,0.00,VWS V14.01,2013-10-17 01:46:00,
2013-10-16 20:47:00,54.0,46.9,24.92,South,169,0.0,0.0,77,0.00,,---,0.00,VWS V14.01,2013-10-17 01:47:00,
2013-10-16 20:49:00,54.0,46.9,24.92,South,169,0.0,0.0,77,0.00,,---,0.00,VWS V14.01,2013-10-17 01:49:00,
2013-10-16 20:51:00,54.0,46.9,24.89,South,179,0.0,0.0,77,0.00,,---,0.00,VWS V14.01,2013-10-17 01:51:00,
2013-10-16 20:52:00,54.0,46.9,24.89,South,179,0.0,0.0,77,0.00,,---,0.00,VWS V14.01,2013-10-17 01:52:00,
2013-10-16 20:53:00,54.0,46.9,24.89,South,179,0.0,0.0,77,0.00,,---,0.00,VWS V14.01,2013-10-17 01:53:00,
2013-10-16 20:54:00,54.0,46.9,24.89,South,179,0.0,0.0,77,0.00,,---,0.00,VWS V14.01,2013-10-17 01:54:00,
2013-10-16 20:57:00,54.0,46.9,24.89,South,179,0.0,0.0,77,0.00,,---,0.00,VWS V14.01,2013-10-17 01:57:00,
2013-10-16 20:58:00,54.0,46.9,24.89,South,179,0.0,0.0,77,0.00,,---,0.00,VWS V14.01,2013-10-17 01:58:00,
2013-10-16 20:59:00,54.0,46.9,24.89,South,179,0.0,0.0,77,0.00,,---,0.00,VWS V14.01,2013-10-17 01:59:00,
2013-10-16 21:02:00,54.0,46.9,24.89,South,179,0.0,0.0,77,0.00,,---,0.00,VWS V14.01,2013-10-17 02:02:00,
2013-10-16 21:03:00,54.0,46.9,24.89,South,179,0.0,0.0,77,0.00,,---,0.00,VWS V14.01,2013-10-17 02:03:00,
2013-10-16 21:04:00,54.0,46.9,24.89,South,179,0.0,0.0,77,0.00,,---,0.00,VWS V14.01,2013-10-17 02:04:00,
2013-10-16 21:08:00,54.0,46.9,24.89,South,179,0.0,0.0,77,0.00,,---,0.00,VWS V14.01,2013-10-17 02:08:00,
2013-10-16 21:09:00,54.0,46.9,24.89,South,179,0.0,0.0,77,0.00,,---,0.00,VWS V14.01,2013-10-17 02:09:00,
2013-10-16 21:10:00,54.0,46.9,24.89,South,179,0.0,0.0,77,0.00,,---,0.00,VWS V14.01,2013-10-17 02:10:00,
2013-10-16 21:13:00,54.0,46.9,24.89,South,179,0.0,0.0,77,0.00,,---,0.00,VWS V14.01,2013-10-17 02:13:00,
2013-10-16 21:14:00,54.0,46.9,24.89,South,179,0.0,0.0,77,0.00,,---,0.00,VWS V14.01,2013-10-17 02:14:00,
2013-10-16 21:15:00,54.0,46.9,24.89,South,179,0.0,0.0,77,0.00,,---,0.00,VWS V14.01,2013-10-17 02:15:00,
2013-10-16 21:18:00,54.0,46.9,24.89,South,179,0.0,0.0,77,0.00,,---,0.00,VWS V14.01,2013-10-17 02:18:00,
2013-10-16 21:19:00,54.0,46.9,24.89,South,179,0.0,0.0,77,0.00,,---,0.00,VWS V14.01,2013-10-17 02:19:00,
2013-10-16 21:20:00,54.0,46.9,24.89,South,179,0.0,0.0,77,0.00,,---,0.00,VWS V14.01,2013-10-17 02:20:00,
2013-10-16 21:23:00,54.0,46.9,24.92,South,179,0.0,0.0,77,0.00,,---,0.00,VWS V14.01,2013-10-17 02:23:00,
2013-10-16 21:24:00,54.0,46.9,24.92,South,179,0.0,0.0,77,0.00,,---,0.00,VWS V14.01,2013-10-17 02:24:00,
2013-10-16 21:25:00,54.0,46.9,24.92,South,179,0.0,0.0,77,0.00,,---,0.00,VWS V14.01,2013-10-17 02:25:00,
2013-10-16 21:28:00,54.0,46.9,24.92,South,179,0.0,0.0,77,0.00,,---,0.00,VWS V14.01,2013-10-17 02:28:00,
2013-10-16 21:29:00,54.0,46.9,24.92,South,177,0.0,0.0,77,0.00,,---,0.00,VWS V14.01,2013-10-17 02:29:00,
2013-10-16 21:30:00,54.0,46.9,24.92,South,177,0.0,0.0,77,0.00,,---,0.00,VWS V14.01,2013-10-17 02:30:00,
2013-10-16 21:33:00,53.8,46.8,24.92,SSE,168,3.6,3.6,77,0.00,,---,0.00,VWS V14.01,2013-10-17 02:33:00,
2013-10-16 21:34:00,53.8,46.8,24.92,SSE,151,4.0,4.0,77,0.00,,---,0.00,VWS V14.01,2013-10-17 02:34:00,
2013-10-16 21:35:00,53.8,46.8,24.92,South,169,4.0,4.0,77,0.00,,---,0.00,VWS V14.01,2013-10-17 02:35:00,
2013-10-16 21:38:00,53.8,47.1,24.92,South,169,4.0,4.0,78,0.00,,---,0.00,VWS V14.01,2013-10-17 02:38:00,
2013-10-16 21:39:00,53.6,46.9,24.92,South,169,4.0,4.0,78,0.00,,---,0.00,VWS V14.01,2013-10-17 02:39:00,
2013-10-16 21:40:00,53.6,46.9,24.92,SSE,151,0.0,0.0,78,0.00,,---,0.00,VWS V14.01,2013-10-17 02:40:00,
2013-10-16 21:41:00,53.6,46.9,24.92,SSE,151,0.0,0.0,78,0.00,,---,0.00,VWS V14.01,2013-10-17 02:41:00,
2013-10-16 21:44:00,53.6,46.9,24.92,SSE,151,0.0,0.0,78,0.00,,---,0.00,VWS V14.01,2013-10-17 02:44:00,
2013-10-16 21:45:00,53.6,47.3,24.92,SSE,151,0.0,0.0,79,0.00,,---,0.00,VWS V14.01,2013-10-17 02:45:00,
2013-10-16 21:46:00,53.6,47.3,24.92,SSE,151,0.0,0.0,79,0.00,,---,0.00,VWS V14.01,2013-10-17 02:46:00,
2013-10-16 21:49:00,53.6,47.3,24.92,SSE,151,0.0,0.0,79,0.00,,---,0.00,VWS V14.01,2013-10-17 02:49:00,
2013-10-16 21:50:00,53.6,47.3,24.92,SSE,151,0.0,0.0,79,0.00,,---,0.00,VWS V14.01,2013-10-17 02:50:00,
2013-10-16 21:51:00,53.4,47.1,24.92,SSE,151,0.0,0.0,79,0.00,,---,0.00,VWS V14.01,2013-10-17 02:51:00,
2013-10-16 21:52:00,53.4,47.1,24.92,SSE,151,0.0,0.0,79,0.00,,---,0.00,VWS V14.01,2013-10-17 02:52:00,
2013-10-16 21:54:00,53.4,47.1,24.92,SSE,151,0.0,0.0,79,0.00,,---,0.00,VWS V14.01,2013-10-17 02:54:00,
2013-10-16 21:55:00,53.4,47.1,24.92,SSE,151,0.0,0.0,79,0.00,,---,0.00,VWS V14.01,2013-10-17 02:55:00,
2013-10-16 21:56:00,53.4,47.1,24.92,SSE,151,0.0,0.0,79,0.00,,---,0.00,VWS V14.01,2013-10-17 02:56:00,
2013-10-16 21:57:00,53.4,47.1,24.92,SSE,151,0.0,0.0,79,0.00,,---,0.00,VWS V14.01,2013-10-17 02:57:00,
2013-10-16 21:59:00,53.2,47.2,24.92,SSE,151,0.0,0.0,80,0.00,,---,0.00,VWS V14.01,2013-10-17 02:59:00,
2013-10-16 22:00:00,53.2,47.2,24.92,SSE,151,0.0,0.0,80,0.00,,---,0.00,VWS V14.01,2013-10-17 03:00:00,
2013-10-16 22:01:00,53.2,47.2,24.92,SSE,151,0.0,0.0,80,0.00,,---,0.00,VWS V14.01,2013-10-17 03:01:00,
2013-10-16 22:02:00,53.2,47.2,24.92,SSE,151,0.0,0.0,80,0.00,,---,0.00,VWS V14.01,2013-10-17 03:02:00,
2013-10-16 22:04:00,53.1,47.1,24.92,SSE,151,0.0,0.0,80,0.00,,---,0.00,VWS V14.01,2013-10-17 03:04:00,
2013-10-16 22:05:00,53.1,47.1,24.92,SSE,151,0.0,0.0,80,0.00,,---,0.00,VWS V14.01,2013-10-17 03:05:00,
2013-10-16 22:06:00,53.1,47.1,24.92,SSE,151,0.0,0.0,80,0.00,,---,0.00,VWS V14.01,2013-10-17 03:06:00,
2013-10-16 22:07:00,53.1,47.1,24.92,SSE,151,0.0,0.0,80,0.00,,---,0.00,VWS V14.01,2013-10-17 03:07:00,
2013-10-16 22:09:00,53.1,47.1,24.92,SSE,151,0.0,0.0,80,0.00,,---,0.00,VWS V14.01,2013-10-17 03:09:00,
2013-10-16 22:11:00,53.1,47.1,24.92,SSE,151,0.0,0.0,80,0.00,,---,0.00,VWS V14.01,2013-10-17 03:11:00,
2013-10-16 22:12:00,53.1,47.1,24.92,SSE,151,0.0,0.0,80,0.00,,---,0.00,VWS V14.01,2013-10-17 03:12:00,
2013-10-16 22:13:00,53.1,47.1,24.92,SSE,151,0.0,0.0,80,0.00,,---,0.00,VWS V14.01,2013-10-17 03:13:00,
2013-10-16 22:15:00,53.1,47.1,24.92,SSE,151,0.0,0.0,80,0.00,,---,0.00,VWS V14.01,2013-10-17 03:15:00,
2013-10-16 22:16:00,53.1,47.1,24.92,SSE,151,0.0,0.0,80,0.00,,---,0.00,VWS V14.01,2013-10-17 03:16:00,
2013-10-16 22:17:00,53.1,47.1,24.92,SSE,151,0.0,0.0,80,0.00,,---,0.00,VWS V14.01,2013-10-17 03:17:00,
2013-10-16 22:18:00,53.1,47.1,24.92,SSE,151,0.0,0.0,80,0.00,,---,0.00,VWS V14.01,2013-10-17 03:18:00,
2013-10-16 22:21:00,52.9,47.5,24.92,SSE,151,0.0,0.0,82,0.00,,---,0.00,VWS V14.01,2013-10-17 03:21:00,
2013-10-16 22:22:00,52.9,47.5,24.92,SSE,151,0.0,0.0,82,0.00,,---,0.00,VWS V14.01,2013-10-17 03:22:00,
2013-10-16 22:23:00,52.9,47.5,24.92,SSE,151,0.0,0.0,82,0.00,,---,0.00,VWS V14.01,2013-10-17 03:23:00,
2013-10-16 22:24:00,52.9,47.5,24.92,SSE,151,0.0,0.0,82,0.00,,---,0.00,VWS V14.01,2013-10-17 03:24:00,
2013-10-16 22:26:00,52.9,47.5,24.92,SSE,151,0.0,0.0,82,0.00,,---,0.00,VWS V14.01,2013-10-17 03:26:00,
2013-10-16 22:27:00,52.9,47.5,24.92,SSE,151,0.0,0.0,82,0.00,,---,0.00,VWS V14.01,2013-10-17 03:27:00,
2013-10-16 22:28:00,52.9,47.5,24.92,SSE,151,0.0,0.0,82,0.00,,---,0.00,VWS V14.01,2013-10-17 03:28:00,
2013-10-16 22:29:00,52.9,47.5,24.92,SSE,151,0.0,0.0,82,0.00,,---,0.00,VWS V14.01,2013-10-17 03:29:00,
2013-10-16 22:31:00,53.1,48.0,24.92,SSE,151,0.0,0.0,83,0.00,,---,0.00,VWS V14.01,2013-10-17 03:31:00,
2013-10-16 22:32:00,53.1,48.0,24.92,SSE,151,0.0,0.0,83,0.00,,---,0.00,VWS V14.01,2013-10-17 03:32:00,
2013-10-16 22:33:00,53.1,48.0,24.92,SSE,151,0.0,0.0,83,0.00,,---,0.00,VWS V14.01,2013-10-17 03:33:00,
2013-10-16 22:34:00,53.1,48.0,24.92,SSE,151,0.0,0.0,83,0.00,,---,0.00,VWS V14.01,2013-10-17 03:34:00,
2013-10-16 22:37:00,53.1,48.0,24.92,SSE,151,0.0,0.0,83,0.00,,---,0.00,VWS V14.01,2013-10-17 03:37:00,
2013-10-16 22:38:00,53.1,48.0,24.92,SSE,151,0.0,0.0,83,0.00,,---,0.00,VWS V14.01,2013-10-17 03:38:00,
2013-10-16 22:39:00,53.1,48.0,24.92,SSE,151,0.0,0.0,83,0.00,,---,0.00,VWS V14.01,2013-10-17 03:39:00,
2013-10-16 22:42:00,53.1,48.0,24.92,SSE,151,0.0,0.0,83,0.00,,---,0.00,VWS V14.01,2013-10-17 03:42:00,
2013-10-16 22:43:00,53.1,48.0,24.92,SSE,151,0.0,0.0,83,0.00,,---,0.00,VWS V14.01,2013-10-17 03:43:00,
2013-10-16 22:44:00,53.1,48.0,24.92,SSE,151,0.0,0.0,83,0.00,,---,0.00,VWS V14.01,2013-10-17 03:44:00,
2013-10-16 22:47:00,53.1,48.0,24.92,SSE,151,0.0,0.0,83,0.00,,---,0.00,VWS V14.01,2013-10-17 03:47:00,
2013-10-16 22:48:00,53.1,48.0,24.92,SSE,151,0.0,0.0,83,0.00,,---,0.00,VWS V14.01,2013-10-17 03:48:00,
2013-10-16 22:49:00,53.1,48.0,24.92,SSE,151,0.0,0.0,83,0.00,,---,0.00,VWS V14.01,2013-10-17 03:49:00,
2013-10-16 22:52:00,53.1,48.0,24.92,SSE,151,0.0,0.0,83,0.00,,---,0.00,VWS V14.01,2013-10-17 03:52:00,
2013-10-16 22:54:00,53.1,48.0,24.92,SSE,151,0.0,0.0,83,0.00,,---,0.00,VWS V14.01,2013-10-17 03:54:00,
2013-10-16 22:55:00,53.1,48.0,24.92,SSE,151,0.0,0.0,83,0.00,,---,0.00,VWS V14.01,2013-10-17 03:55:00,
2013-10-16 22:57:00,53.1,48.0,24.92,SSE,151,0.0,0.0,83,0.00,,---,0.00,VWS V14.01,2013-10-17 03:57:00,
2013-10-16 22:59:00,53.1,48.0,24.92,SSE,151,0.0,0.0,83,0.00,,---,0.00,VWS V14.01,2013-10-17 03:59:00,
2013-10-16 23:00:00,53.1,48.0,24.92,SSE,151,0.0,0.0,83,0.00,,---,0.00,VWS V14.01,2013-10-17 04:00:00,
2013-10-16 23:01:00,53.1,48.0,24.92,SSE,151,0.0,0.0,83,0.00,,---,0.00,VWS V14.01,2013-10-17 04:01:00,
2013-10-16 23:06:00,53.1,48.0,24.92,SSE,151,0.0,0.0,83,0.00,,---,0.00,VWS V14.01,2013-10-17 04:06:00,
2013-10-16 23:11:00,53.1,48.0,24.92,SSE,151,0.0,0.0,83,0.00,,---,0.00,VWS V14.01,2013-10-17 04:11:00,
2013-10-16 23:16:00,53.1,48.0,24.92,SSE,151,0.0,0.0,83,0.00,,---,0.00,VWS V14.01,2013-10-17 04:16:00,
2013-10-16 23:17:00,53.1,48.0,24.92,SSE,151,0.0,0.0,83,0.00,,---,0.00,VWS V14.01,2013-10-17 04:17:00,
2013-10-16 23:21:00,52.9,47.5,24.92,South,187,0.0,0.0,82,0.00,,---,0.00,VWS V14.01,2013-10-17 04:21:00,
2013-10-16 23:22:00,52.9,47.5,24.92,South,187,0.0,0.0,82,0.00,,---,0.00,VWS V14.01,2013-10-17 04:22:00,
2013-10-16 23:23:00,52.9,47.5,24.92,South,187,0.0,0.0,82,0.00,,---,0.00,VWS V14.01,2013-10-17 04:23:00,
2013-10-16 23:26:00,52.9,47.5,24.92,South,180,2.7,3.1,82,0.00,,---,0.00,VWS V14.01,2013-10-17 04:26:00,
2013-10-16 23:27:00,52.9,47.5,24.92,South,180,2.7,2.7,82,0.00,,---,0.00,VWS V14.01,2013-10-17 04:27:00,
2013-10-16 23:28:00,52.9,47.5,24.92,SSE,148,3.1,3.1,82,0.00,,---,0.00,VWS V14.01,2013-10-17 04:28:00,
2013-10-16 23:31:00,52.9,47.5,24.92,South,174,4.0,4.0,82,0.00,,---,0.00,VWS V14.01,2013-10-17 04:31:00,
2013-10-16 23:32:00,52.9,47.5,24.92,South,174,4.0,4.0,82,0.00,,---,0.00,VWS V14.01,2013-10-17 04:32:00,
2013-10-16 23:33:00,52.9,47.5,24.92,South,174,4.0,4.0,82,0.00,,---,0.00,VWS V14.01,2013-10-17 04:33:00,
2013-10-16 23:37:00,52.7,47.4,24.92,South,174,0.0,0.0,82,0.00,,---,0.00,VWS V14.01,2013-10-17 04:37:00,
2013-10-16 23:38:00,52.7,47.4,24.92,South,174,0.0,0.0,82,0.00,,---,0.00,VWS V14.01,2013-10-17 04:38:00,
2013-10-16 23:39:00,52.7,47.4,24.92,South,174,0.0,0.0,82,0.00,,---,0.00,VWS V14.01,2013-10-17 04:39:00,
2013-10-16 23:42:00,52.7,47.4,24.92,South,174,0.0,0.0,82,0.00,,---,0.00,VWS V14.01,2013-10-17 04:42:00,
2013-10-16 23:43:00,52.7,47.4,24.92,South,174,0.0,0.0,82,0.00,,---,0.00,VWS V14.01,2013-10-17 04:43:00,
2013-10-16 23:44:00,52.7,47.4,24.92,South,174,0.0,0.0,82,0.00,,---,0.00,VWS V14.01,2013-10-17 04:44:00,
2013-10-16 23:47:00,52.7,47.4,24.92,South,174,0.0,0.0,82,0.00,,---,0.00,VWS V14.01,2013-10-17 04:47:00,
2013-10-16 23:48:00,52.7,47.4,24.92,South,174,0.0,0.0,82,0.00,,---,0.00,VWS V14.01,2013-10-17 04:48:00,
2013-10-16 23:50:00,52.7,47.4,24.92,South,173,0.0,0.0,82,0.00,,---,0.00,VWS V14.01,2013-10-17 04:50:00,
2013-10-16 23:52:00,52.7,47.4,24.92,South,173,0.0,0.0,82,0.00,,---,0.00,VWS V14.01,2013-10-17 04:52:00,
2013-10-16 23:53:00,52.7,47.4,24.92,SSE,154,0.0,0.0,82,0.00,,---,0.00,VWS V14.01,2013-10-17 04:53:00,
2013-10-16 23:55:00,52.7,47.4,24.92,SSE,161,3.1,3.1,82,0.00,,---,0.00,VWS V14.01,2013-10-17 04:55:00,
2013-10-16 23:57:00,52.7,47.4,24.92,South,180,3.1,3.1,82,0.00,,---,0.00,VWS V14.01,2013-10-17 04:57:00,
2013-10-16 23:58:00,52.7,47.4,24.92,South,180,3.1,3.1,82,0.00,,---,0.00,VWS V14.01,2013-10-17 04:58:00,
2013-10-16 23:59:00,52.7,47.4,24.92,South,180,3.1,3.1,82,0.00,,---,0.00,VWS V14.01,2013-10-17 04:59:00,